Wetterdaten: Mittwoch, 12.02.2020
Datum Zeit Temp. Aussen Temp. o. S. Temp +5cm Feuchte Auss Luftdruck Regen Sonnenschein Regendauer Solar Windben Empfang
12.02.2020 00:00 4,4 C 3,9 C 2,8 C 77 % 1010,1 hPa 0,0 l/m 0 min 0 min 0 W/m 22,5 km/h (4 Bft) 95,74 %
12.02.2020 00:02 4,4 C 3,3 C 2,8 C 77 % 1010,2 hPa 0,0 l/m 0 min 0 min 0 W/m 16,1 km/h (3 Bft) 97,50 %
12.02.2020 00:04 4,3 C 3,3 C 2,8 C 77 % 1010,3 hPa 0,0 l/m 0 min 0 min 0 W/m 22,5 km/h (4 Bft) 95,65 %
12.02.2020 00:07 4,3 C 3,3 C 2,8 C 77 % 1010,3 hPa 0,0 l/m 0 min 0 min 0 W/m 29,0 km/h (5 Bft) 98,77 %
12.02.2020 00:08 4,3 C 3,9 C 2,8 C 76 % 1010,4 hPa 0,0 l/m 0 min 0 min 0 W/m 25,7 km/h (4 Bft) 91,67 %
12.02.2020 00:10 4,3 C 3,9 C 2,8 C 77 % 1010,5 hPa 0,0 l/m 0 min 0 min 0 W/m 29,0 km/h (5 Bft) 97,87 %
12.02.2020 00:12 4,3 C 3,9 C 2,8 C 76 % 1010,3 hPa 0,0 l/m 0 min 0 min 0 W/m 22,5 km/h (4 Bft) 97,87 %
12.02.2020 00:14 4,3 C 3,3 C 2,8 C 76 % 1010,4 hPa 0,0 l/m 0 min 0 min 0 W/m 35,4 km/h (5 Bft) 97,87 %
12.02.2020 00:16 4,3 C 3,9 C 2,8 C 76 % 1010,5 hPa 0,0 l/m 0 min 0 min 0 W/m 35,4 km/h (5 Bft) 97,83 %
12.02.2020 00:18 4,3 C 3,9 C 3,3 C 76 % 1010,4 hPa 0,0 l/m 0 min 0 min 0 W/m 22,5 km/h (4 Bft) 97,87 %
12.02.2020 00:20 4,3 C 3,9 C 3,3 C 76 % 1010,5 hPa 0,0 l/m 0 min 0 min 0 W/m 38,6 km/h (5 Bft) 97,87 %
12.02.2020 00:22 4,3 C 3,9 C 3,3 C 76 % 1010,4 hPa 0,0 l/m 0 min 0 min 0 W/m 25,7 km/h (4 Bft) 97,87 %
12.02.2020 00:24 4,4 C 3,9 C 2,8 C 76 % 1010,5 hPa 0,0 l/m 0 min 0 min 0 W/m 19,3 km/h (3 Bft) 97,87 %
12.02.2020 00:26 4,4 C 3,9 C 3,3 C 76 % 1010,5 hPa 0,0 l/m 0 min 0 min 0 W/m 32,2 km/h (5 Bft) 97,87 %
12.02.2020 00:28 4,4 C 3,9 C 3,3 C 75 % 1010,7 hPa 0,0 l/m 0 min 0 min 0 W/m 29,0 km/h (5 Bft) 97,83 %
12.02.2020 00:30 4,4 C 3,9 C 3,3 C 75 % 1010,6 hPa 0,0 l/m 0 min 0 min 0 W/m 32,2 km/h (5 Bft) 97,87 %
12.02.2020 00:32 4,4 C 3,9 C 3,3 C 75 % 1010,7 hPa 0,0 l/m 0 min 0 min 0 W/m 25,7 km/h (4 Bft) 97,87 %
12.02.2020 00:34 4,4 C 3,9 C 2,8 C 75 % 1010,7 hPa 0,0 l/m 0 min 0 min 0 W/m 22,5 km/h (4 Bft) 97,87 %
12.02.2020 00:36 4,4 C 3,9 C 2,8 C 75 % 1010,8 hPa 0,0 l/m 0 min 0 min 0 W/m 35,4 km/h (5 Bft) 95,74 %
12.02.2020 00:38 4,4 C 3,9 C 2,8 C 75 % 1010,7 hPa 0,0 l/m 0 min 0 min 0 W/m 16,1 km/h (3 Bft) 97,87 %
12.02.2020 00:40 4,3 C 3,3 C 2,8 C 75 % 1010,8 hPa 0,0 l/m 0 min 0 min 0 W/m 19,3 km/h (3 Bft) 100,00 %
12.02.2020 00:42 4,3 C 3,3 C 2,8 C 75 % 1010,8 hPa 0,0 l/m 0 min 0 min 0 W/m 38,6 km/h (5 Bft) 100,00 %
12.02.2020 00:44 4,3 C 3,3 C 2,8 C 75 % 1010,8 hPa 0,0 l/m 0 min 0 min 0 W/m 25,7 km/h (4 Bft) 100,00 %
12.02.2020 00:46 4,3 C 3,3 C 2,8 C 76 % 1010,9 hPa 0,0 l/m 0 min 0 min 0 W/m 22,5 km/h (4 Bft) 100,00 %
12.02.2020 00:48 4,3 C 3,3 C 2,8 C 76 % 1010,9 hPa 0,0 l/m 0 min 0 min 0 W/m 22,5 km/h (4 Bft) 97,87 %
12.02.2020 00:50 4,3 C 3,3 C 2,8 C 76 % 1010,9 hPa 0,0 l/m 0 min 0 min 0 W/m 22,5 km/h (4 Bft) 97,83 %
12.02.2020 00:52 4,3 C 3,9 C 2,8 C 76 % 1011,0 hPa 0,0 l/m 0 min 0 min 0 W/m 16,1 km/h (3 Bft) 97,87 %
12.02.2020 00:54 4,3 C 3,3 C 2,8 C 76 % 1010,9 hPa 0,0 l/m 0 min 0 min 0 W/m 19,3 km/h (3 Bft) 97,87 %
12.02.2020 00:56 4,3 C 3,3 C 2,8 C 76 % 1010,9 hPa 0,0 l/m 0 min 0 min 0 W/m 12,9 km/h (3 Bft) 97,87 %
12.02.2020 00:58 4,3 C 3,3 C 2,8 C 76 % 1011,0 hPa 0,0 l/m 0 min 0 min 0 W/m 16,1 km/h (3 Bft) 97,87 %
12.02.2020 01:00 4,2 C 3,3 C 2,8 C 76 % 1011,1 hPa 0,0 l/m 0 min 0 min 0 W/m 35,4 km/h (5 Bft) 97,87 %
12.02.2020 01:02 4,2 C 3,3 C 2,8 C 76 % 1011,0 hPa 0,0 l/m 0 min 0 min 0 W/m 22,5 km/h (4 Bft) 97,83 %
12.02.2020 01:04 4,2 C 3,3 C 2,8 C 77 % 1011,1 hPa 0,0 l/m 0 min 0 min 0 W/m 16,1 km/h (3 Bft) 97,87 %
12.02.2020 01:06 4,2 C 3,3 C 2,8 C 77 % 1011,0 hPa 0,0 l/m 0 min 0 min 0 W/m 19,3 km/h (3 Bft) 97,87 %
12.02.2020 01:08 4,2 C 3,3 C 2,8 C 77 % 1011,1 hPa 0,0 l/m 0 min 0 min 0 W/m 22,5 km/h (4 Bft) 97,87 %
12.02.2020 01:10 4,2 C 3,3 C 2,8 C 78 % 1011,0 hPa 0,0 l/m 0 min 0 min 0 W/m 19,3 km/h (3 Bft) 97,87 %
12.02.2020 01:12 4,2 C 3,3 C 2,8 C 78 % 1011,2 hPa 0,0 l/m 0 min 0 min 0 W/m 32,2 km/h (5 Bft) 97,87 %
12.02.2020 01:14 4,2 C 3,3 C 2,8 C 78 % 1011,2 hPa 0,0 l/m 0 min 0 min 0 W/m 35,4 km/h (5 Bft) 95,65 %
12.02.2020 01:16 4,2 C 3,3 C 2,8 C 78 % 1011,0 hPa 0,0 l/m 0 min 0 min 0 W/m 16,1 km/h (3 Bft) 95,74 %
12.02.2020 01:18 4,1 C 3,3 C 2,8 C 78 % 1010,9 hPa 0,0 l/m 0 min 0 min 0 W/m 22,5 km/h (4 Bft) 97,87 %
12.02.2020 01:20 4,1 C 3,3 C 2,8 C 79 % 1011,1 hPa 0,0 l/m 0 min 0 min 0 W/m 25,7 km/h (4 Bft) 97,87 %
12.02.2020 01:22 4,1 C 3,3 C 2,8 C 79 % 1011,1 hPa 0,0 l/m 0 min 0 min 0 W/m 38,6 km/h (5 Bft) 97,87 %
12.02.2020 01:24 4,1 C 3,3 C 2,8 C 79 % 1011,1 hPa 0,0 l/m 0 min 0 min 0 W/m 19,3 km/h (3 Bft) 97,87 %
12.02.2020 01:26 4,1 C 3,3 C 2,8 C 79 % 1011,1 hPa 0,0 l/m 0 min 0 min 0 W/m 22,5 km/h (4 Bft) 97,83 %
12.02.2020 01:28 4,1 C 3,3 C 2,8 C 79 % 1011,1 hPa 0,0 l/m 0 min 0 min 0 W/m 19,3 km/h (3 Bft) 97,87 %
12.02.2020 01:30 4,1 C 3,3 C 2,8 C 79 % 1011,1 hPa 0,0 l/m 0 min 0 min 0 W/m 25,7 km/h (4 Bft) 97,87 %
12.02.2020 01:32 4,1 C 3,3 C 2,8 C 79 % 1011,1 hPa 0,0 l/m 0 min 0 min 0 W/m 12,9 km/h (3 Bft) 97,87 %
12.02.2020 01:34 4,1 C 3,3 C 2,8 C 79 % 1011,2 hPa 0,0 l/m 0 min 0 min 0 W/m 32,2 km/h (5 Bft) 97,87 %
12.02.2020 01:36 4,1 C 3,3 C 2,8 C 79 % 1011,1 hPa 0,0 l/m 0 min 0 min 0 W/m 22,5 km/h (4 Bft) 95,74 %
12.02.2020 01:38 4,1 C 3,3 C 2,8 C 79 % 1011,2 hPa 0,0 l/m 0 min 0 min 0 W/m 32,2 km/h (5 Bft) 97,87 %
12.02.2020 01:40 4,0 C 3,3 C 2,8 C 79 % 1011,2 hPa 0,0 l/m 0 min 0 min 0 W/m 19,3 km/h (3 Bft) 95,65 %
12.02.2020 01:42 4,0 C 3,3 C 2,8 C 80 % 1011,2 hPa 0,0 l/m 0 min 0 min 0 W/m 12,9 km/h (3 Bft) 97,87 %
12.02.2020 01:44 4,0 C 3,3 C 2,8 C 80 % 1011,1 hPa 0,0 l/m 0 min 0 min 0 W/m 19,3 km/h (3 Bft) 97,87 %
12.02.2020 01:46 4,0 C 3,3 C 2,8 C 80 % 1011,1 hPa 0,0 l/m 0 min 0 min 0 W/m 25,7 km/h (4 Bft) 97,87 %
12.02.2020 01:48 4,0 C 3,3 C 2,8 C 80 % 1011,2 hPa 0,0 l/m 0 min 0 min 0 W/m 32,2 km/h (5 Bft) 97,87 %
12.02.2020 01:50 4,0 C 3,3 C 2,8 C 80 % 1011,2 hPa 0,0 l/m 0 min 0 min 0 W/m 22,5 km/h (4 Bft) 97,87 %
12.02.2020 01:52 3,9 C 3,3 C 2,8 C 80 % 1011,2 hPa 0,0 l/m 0 min 0 min 0 W/m 22,5 km/h (4 Bft) 95,65 %
12.02.2020 01:54 3,9 C 2,8 C 2,2 C 80 % 1011,2 hPa 0,0 l/m 0 min 0 min 0 W/m 22,5 km/h (4 Bft) 97,87 %
12.02.2020 01:56 3,9 C 2,8 C 2,2 C 80 % 1011,2 hPa 0,0 l/m 0 min 0 min 0 W/m 22,5 km/h (4 Bft) 97,87 %
12.02.2020 01:58 3,9 C 3,3 C 2,8 C 80 % 1011,2 hPa 0,0 l/m 0 min 0 min 0 W/m 19,3 km/h (3 Bft) 95,74 %
12.02.2020 02:00 3,9 C 3,3 C 2,8 C 80 % 1011,2 hPa 0,0 l/m 0 min 0 min 0 W/m 12,9 km/h (3 Bft) 95,74 %
12.02.2020 02:02 3,8 C 3,3 C 2,8 C 80 % 1011,2 hPa 0,0 l/m 0 min 0 min 0 W/m 12,9 km/h (3 Bft) 95,74 %
12.02.2020 02:04 3,8 C 3,3 C 2,8 C 81 % 1011,3 hPa 0,0 l/m 0 min 0 min 0 W/m 25,7 km/h (4 Bft) 97,83 %
12.02.2020 02:06 3,8 C 3,3 C 2,8 C 81 % 1011,2 hPa 0,0 l/m 0 min 0 min 0 W/m 22,5 km/h (4 Bft) 93,62 %
12.02.2020 02:08 3,8 C 3,3 C 2,8 C 81 % 1011,3 hPa 0,0 l/m 0 min 0 min 0 W/m 19,3 km/h (3 Bft) 97,87 %
12.02.2020 02:10 3,8 C 3,3 C 2,8 C 81 % 1011,2 hPa 0,0 l/m 0 min 0 min 0 W/m 16,1 km/h (3 Bft) 97,87 %
12.02.2020 02:12 3,9 C 3,3 C 2,8 C 81 % 1011,3 hPa 0,0 l/m 0 min 0 min 0 W/m 32,2 km/h (5 Bft) 95,74 %
12.02.2020 02:14 3,9 C 3,3 C 2,8 C 81 % 1011,3 hPa 0,0 l/m 0 min 0 min 0 W/m 22,5 km/h (4 Bft) 95,74 %
12.02.2020 02:16 3,9 C 3,3 C 2,8 C 81 % 1011,3 hPa 0,0 l/m 0 min 0 min 0 W/m 19,3 km/h (3 Bft) 95,65 %
12.02.2020 02:18 3,9 C 3,3 C 2,8 C 81 % 1011,3 hPa 0,0 l/m 0 min 0 min 0 W/m 19,3 km/h (3 Bft) 95,74 %
12.02.2020 02:20 3,9 C 3,3 C 2,8 C 81 % 1011,3 hPa 0,0 l/m 0 min 0 min 0 W/m 19,3 km/h (3 Bft) 95,74 %
12.02.2020 02:22 3,9 C 3,3 C 2,8 C 81 % 1011,2 hPa 0,0 l/m 0 min 0 min 0 W/m 16,1 km/h (3 Bft) 93,62 %
12.02.2020 02:24 3,9 C 3,3 C 2,8 C 81 % 1011,2 hPa 0,0 l/m 0 min 0 min 0 W/m 16,1 km/h (3 Bft) 93,62 %
12.02.2020 02:26 3,9 C 3,3 C 2,8 C 81 % 1011,2 hPa 0,0 l/m 0 min 0 min 0 W/m 25,7 km/h (4 Bft) 95,74 %
12.02.2020 02:28 3,9 C 3,3 C 2,8 C 81 % 1011,3 hPa 0,0 l/m 0 min 0 min 0 W/m 19,3 km/h (3 Bft) 95,65 %
12.02.2020 02:30 3,9 C 3,3 C 2,8 C 81 % 1011,2 hPa 0,0 l/m 0 min 0 min 0 W/m 22,5 km/h (4 Bft) 95,74 %
12.02.2020 02:32 3,9 C 3,3 C 2,8 C 81 % 1011,2 hPa 0,0 l/m 0 min 0 min 0 W/m 19,3 km/h (3 Bft) 93,62 %
12.02.2020 02:34 3,9 C 3,3 C 2,8 C 81 % 1011,3 hPa 0,0 l/m 0 min 0 min 0 W/m 22,5 km/h (4 Bft) 97,87 %
12.02.2020 02:36 3,9 C 3,3 C 2,8 C 81 % 1011,2 hPa 0,0 l/m 0 min 0 min 0 W/m 16,1 km/h (3 Bft) 95,74 %
12.02.2020 02:38 3,9 C 3,3 C 2,8 C 81 % 1011,1 hPa 0,0 l/m 0 min 0 min 0 W/m 19,3 km/h (3 Bft) 95,65 %
12.02.2020 02:40 4,0 C 3,3 C 2,8 C 81 % 1011,2 hPa 0,0 l/m 0 min 0 min 0 W/m 22,5 km/h (4 Bft) 95,74 %
12.02.2020 02:42 4,0 C 3,3 C 2,8 C 81 % 1011,2 hPa 0,0 l/m 0 min 0 min 0 W/m 22,5 km/h (4 Bft) 55,56 %
12.02.2020 02:44 4,0 C 3,3 C 2,8 C 81 % 1011,2 hPa 0,0 l/m 0 min 0 min 0 W/m 16,1 km/h (3 Bft) 95,74 %
12.02.2020 02:46 4,0 C 3,3 C 2,8 C 81 % 1011,2 hPa 0,0 l/m 0 min 0 min 0 W/m 22,5 km/h (4 Bft) 95,74 %
12.02.2020 02:48 4,0 C 3,3 C 2,8 C 81 % 1011,1 hPa 0,0 l/m 0 min 0 min 0 W/m 19,3 km/h (3 Bft) 97,87 %
12.02.2020 02:50 4,0 C 3,3 C 2,8 C 81 % 1011,1 hPa 0,0 l/m 0 min 0 min 0 W/m 25,7 km/h (4 Bft) 97,83 %
12.02.2020 02:52 4,0 C 3,3 C 2,8 C 81 % 1011,1 hPa 0,0 l/m 0 min 0 min 0 W/m 16,1 km/h (3 Bft) 97,87 %
12.02.2020 02:54 4,0 C 3,3 C 2,8 C 81 % 1011,1 hPa 0,0 l/m 0 min 0 min 0 W/m 19,3 km/h (3 Bft) 97,87 %
12.02.2020 02:56 4,0 C 3,3 C 2,8 C 81 % 1011,0 hPa 0,0 l/m 0 min 0 min 0 W/m 12,9 km/h (3 Bft) 97,87 %
12.02.2020 02:58 4,0 C 3,3 C 2,8 C 81 % 1011,1 hPa 0,0 l/m 0 min 0 min 0 W/m 16,1 km/h (3 Bft) 100,00 %
12.02.2020 03:00 4,0 C 3,3 C 2,8 C 81 % 1011,1 hPa 0,0 l/m 0 min 0 min 0 W/m 19,3 km/h (3 Bft) 100,00 %
12.02.2020 03:02 4,0 C 3,3 C 2,8 C 81 % 1011,1 hPa 0,0 l/m 0 min 0 min 0 W/m 29,0 km/h (5 Bft) 100,00 %
12.02.2020 03:04 4,0 C 3,3 C 2,8 C 81 % 1011,1 hPa 0,0 l/m 0 min 0 min 0 W/m 16,1 km/h (3 Bft) 100,00 %
12.02.2020 03:06 4,0 C 3,3 C 2,8 C 81 % 1011,1 hPa 0,0 l/m 0 min 0 min 0 W/m 22,5 km/h (4 Bft) 100,00 %
12.02.2020 03:08 4,0 C 3,3 C 2,8 C 81 % 1011,0 hPa 0,0 l/m 0 min 0 min 0 W/m 29,0 km/h (5 Bft) 100,00 %
12.02.2020 03:10 4,1 C 3,3 C 2,8 C 81 % 1011,1 hPa 0,0 l/m 0 min 0 min 0 W/m 19,3 km/h (3 Bft) 100,00 %
12.02.2020 03:12 4,0 C 3,3 C 2,8 C 81 % 1011,1 hPa 0,0 l/m 0 min 0 min 0 W/m 22,5 km/h (4 Bft) 100,00 %
12.02.2020 03:14 4,0 C 3,3 C 2,8 C 81 % 1011,2 hPa 0,0 l/m 0 min 0 min 0 W/m 25,7 km/h (4 Bft) 100,00 %
12.02.2020 03:16 4,0 C 3,3 C 2,8 C 81 % 1011,1 hPa 0,0 l/m 0 min 0 min 0 W/m 16,1 km/h (3 Bft) 100,00 %
12.02.2020 03:18 4,0 C 3,3 C 2,8 C 81 % 1011,1 hPa 0,0 l/m 0 min 0 min 0 W/m 32,2 km/h (5 Bft) 100,00 %
12.02.2020 03:20 4,0 C 3,3 C 2,8 C 81 % 1011,1 hPa 0,0 l/m 0 min 0 min 0 W/m 29,0 km/h (5 Bft) 100,00 %
12.02.2020 03:22 4,0 C 3,3 C 2,8 C 81 % 1011,0 hPa 0,0 l/m 0 min 0 min 0 W/m 19,3 km/h (3 Bft) 100,00 %
12.02.2020 03:24 4,0 C 3,3 C 2,8 C 81 % 1010,9 hPa 0,0 l/m 0 min 0 min 0 W/m 22,5 km/h (4 Bft) 100,00 %
12.02.2020 03:26 4,0 C 3,3 C 2,8 C 81 % 1011,0 hPa 0,0 l/m 0 min 0 min 0 W/m 19,3 km/h (3 Bft) 100,00 %
12.02.2020 03:28 4,0 C 3,3 C 2,8 C 82 % 1011,0 hPa 0,0 l/m 0 min 0 min 0 W/m 35,4 km/h (5 Bft) 100,00 %
12.02.2020 03:30 4,0 C 3,3 C 2,8 C 82 % 1011,0 hPa 0,0 l/m 0 min 0 min 0 W/m 35,4 km/h (5 Bft) 100,00 %
12.02.2020 03:32 4,0 C 3,3 C 2,8 C 82 % 1011,0 hPa 0,0 l/m 0 min 0 min 0 W/m 38,6 km/h (5 Bft) 100,00 %
12.02.2020 03:34 4,0 C 3,3 C 2,8 C 82 % 1011,0 hPa 0,0 l/m 0 min 0 min 0 W/m 19,3 km/h (3 Bft) 100,00 %
12.02.2020 03:36 4,0 C 3,3 C 2,8 C 82 % 1010,9 hPa 0,0 l/m 0 min 0 min 0 W/m 29,0 km/h (5 Bft) 100,00 %
12.02.2020 03:38 4,0 C 3,3 C 2,8 C 82 % 1011,0 hPa 0,0 l/m 0 min 0 min 0 W/m 16,1 km/h (3 Bft) 100,00 %
12.02.2020 03:40 4,0 C 3,3 C 2,8 C 82 % 1010,9 hPa 0,0 l/m 0 min 0 min 0 W/m 22,5 km/h (4 Bft) 100,00 %
12.02.2020 03:42 3,9 C 3,3 C 2,8 C 82 % 1011,0 hPa 0,0 l/m 0 min 0 min 0 W/m 16,1 km/h (3 Bft) 100,00 %
12.02.2020 03:44 3,9 C 3,3 C 2,8 C 82 % 1010,9 hPa 0,0 l/m 0 min 0 min 0 W/m 25,7 km/h (4 Bft) 100,00 %
12.02.2020 03:46 3,9 C 3,3 C 2,8 C 82 % 1010,9 hPa 0,0 l/m 0 min 0 min 0 W/m 19,3 km/h (3 Bft) 100,00 %
12.02.2020 03:48 3,9 C 3,3 C 2,8 C 82 % 1010,9 hPa 0,0 l/m 0 min 0 min 0 W/m 22,5 km/h (4 Bft) 100,00 %
12.02.2020 03:50 3,9 C 3,3 C 2,8 C 82 % 1011,0 hPa 0,0 l/m 0 min 0 min 0 W/m 22,5 km/h (4 Bft) 97,83 %
12.02.2020 03:52 3,9 C 3,3 C 2,8 C 82 % 1010,9 hPa 0,0 l/m 0 min 0 min 0 W/m 25,7 km/h (4 Bft) 100,00 %
12.02.2020 03:54 3,9 C 3,3 C 2,8 C 82 % 1010,9 hPa 0,0 l/m 0 min 0 min 0 W/m 29,0 km/h (5 Bft) 100,00 %
12.02.2020 03:56 3,9 C 3,3 C 2,8 C 82 % 1010,9 hPa 0,0 l/m 0 min 0 min 0 W/m 32,2 km/h (5 Bft) 100,00 %
12.02.2020 03:58 3,9 C 3,3 C 2,8 C 82 % 1011,0 hPa 0,0 l/m 0 min 0 min 0 W/m 29,0 km/h (5 Bft) 100,00 %
12.02.2020 04:00 4,0 C 3,3 C 2,8 C 82 % 1011,0 hPa 0,0 l/m 0 min 0 min 0 W/m 25,7 km/h (4 Bft) 100,00 %
12.02.2020 04:02 4,0 C 3,3 C 2,8 C 82 % 1010,9 hPa 0,0 l/m 0 min 0 min 0 W/m 35,4 km/h (5 Bft) 100,00 %
12.02.2020 04:04 4,1 C 3,3 C 2,8 C 82 % 1011,0 hPa 0,0 l/m 0 min 0 min 0 W/m 29,0 km/h (5 Bft) 100,00 %
12.02.2020 04:06 4,1 C 3,3 C 2,8 C 82 % 1011,0 hPa 0,0 l/m 0 min 0 min 0 W/m 29,0 km/h (5 Bft) 100,00 %
12.02.2020 04:08 4,1 C 3,3 C 2,8 C 82 % 1011,0 hPa 0,0 l/m 0 min 0 min 0 W/m 22,5 km/h (4 Bft) 100,00 %
12.02.2020 04:10 4,1 C 3,3 C 2,8 C 82 % 1011,0 hPa 0,0 l/m 0 min 0 min 0 W/m 25,7 km/h (4 Bft) 97,87 %
12.02.2020 04:12 4,1 C 3,3 C 2,8 C 82 % 1011,0 hPa 0,0 l/m 0 min 0 min 0 W/m 22,5 km/h (4 Bft) 100,00 %
12.02.2020 04:14 4,1 C 3,3 C 2,8 C 82 % 1011,0 hPa 0,0 l/m 0 min 0 min 0 W/m 29,0 km/h (5 Bft) 100,00 %
12.02.2020 04:16 4,1 C 3,3 C 2,8 C 82 % 1011,1 hPa 0,0 l/m 0 min 0 min 0 W/m 35,4 km/h (5 Bft) 95,74 %
12.02.2020 04:18 4,1 C 3,3 C 2,8 C 82 % 1011,1 hPa 0,0 l/m 0 min 0 min 0 W/m 35,4 km/h (5 Bft) 100,00 %
12.02.2020 04:20 4,1 C 3,3 C 2,8 C 82 % 1011,1 hPa 0,0 l/m 0 min 0 min 0 W/m 35,4 km/h (5 Bft) 100,00 %
12.02.2020 04:22 4,1 C 3,3 C 2,8 C 82 % 1011,1 hPa 0,0 l/m 0 min 0 min 0 W/m 25,7 km/h (4 Bft) 100,00 %
12.02.2020 04:24 4,1 C 3,3 C 2,8 C 82 % 1011,1 hPa 0,0 l/m 0 min 0 min 0 W/m 16,1 km/h (3 Bft) 100,00 %
12.02.2020 04:26 4,0 C 3,3 C 2,8 C 82 % 1011,2 hPa 0,0 l/m 0 min 0 min 0 W/m 22,5 km/h (4 Bft) 97,87 %
12.02.2020 04:28 4,0 C 3,3 C 2,8 C 83 % 1011,1 hPa 0,0 l/m 0 min 0 min 0 W/m 25,7 km/h (4 Bft) 97,87 %
12.02.2020 04:30 4,0 C 3,3 C 2,8 C 83 % 1011,1 hPa 0,0 l/m 0 min 0 min 0 W/m 25,7 km/h (4 Bft) 95,74 %
12.02.2020 04:32 4,0 C 3,3 C 2,8 C 83 % 1011,2 hPa 0,0 l/m 0 min 0 min 0 W/m 19,3 km/h (3 Bft) 97,87 %
12.02.2020 04:34 4,0 C 3,3 C 2,8 C 83 % 1011,2 hPa 0,0 l/m 0 min 0 min 0 W/m 16,1 km/h (3 Bft) 100,00 %
12.02.2020 04:36 3,9 C 3,3 C 2,8 C 83 % 1011,3 hPa 0,0 l/m 0 min 0 min 0 W/m 35,4 km/h (5 Bft) 100,00 %
12.02.2020 04:38 3,9 C 3,3 C 2,8 C 83 % 1011,3 hPa 0,0 l/m 0 min 0 min 0 W/m 35,4 km/h (5 Bft) 97,87 %
12.02.2020 04:40 3,9 C 3,3 C 2,8 C 83 % 1011,2 hPa 0,0 l/m 0 min 0 min 0 W/m 22,5 km/h (4 Bft) 95,74 %
12.02.2020 04:42 3,9 C 3,3 C 2,8 C 83 % 1011,3 hPa 0,0 l/m 0 min 0 min 0 W/m 22,5 km/h (4 Bft) 95,74 %
12.02.2020 04:44 3,9 C 3,3 C 2,8 C 83 % 1011,4 hPa 0,0 l/m 0 min 0 min 0 W/m 19,3 km/h (3 Bft) 87,23 %
12.02.2020 04:46 3,9 C 3,3 C 2,8 C 83 % 1011,3 hPa 0,0 l/m 0 min 0 min 0 W/m 22,5 km/h (4 Bft) 53,66 %
12.02.2020 04:48 3,9 C 3,3 C 2,8 C 83 % 1011,5 hPa 0,0 l/m 0 min 0 min 0 W/m 19,3 km/h (3 Bft) 93,62 %
12.02.2020 04:50 3,9 C 3,3 C 2,8 C 83 % 1011,4 hPa 0,0 l/m 0 min 0 min 0 W/m 16,1 km/h (3 Bft) 93,62 %
12.02.2020 04:52 3,8 C 2,8 C 2,2 C 84 % 1011,4 hPa 0,0 l/m 0 min 0 min 0 W/m 16,1 km/h (3 Bft) 93,62 %
12.02.2020 04:54 3,8 C 3,3 C 2,2 C 84 % 1011,5 hPa 0,0 l/m 0 min 0 min 0 W/m 16,1 km/h (3 Bft) 93,62 %
12.02.2020 04:56 3,8 C 3,3 C 2,8 C 84 % 1011,5 hPa 0,0 l/m 0 min 0 min 0 W/m 22,5 km/h (4 Bft) 95,74 %
12.02.2020 04:58 3,8 C 3,3 C 2,8 C 84 % 1011,5 hPa 0,0 l/m 0 min 0 min 0 W/m 16,1 km/h (3 Bft) 95,65 %
12.02.2020 05:00 3,8 C 3,3 C 2,8 C 84 % 1011,4 hPa 0,0 l/m 0 min 0 min 0 W/m 25,7 km/h (4 Bft) 91,49 %
12.02.2020 05:02 3,8 C 3,3 C 2,8 C 84 % 1011,5 hPa 0,0 l/m 0 min 0 min 0 W/m 29,0 km/h (5 Bft) 89,36 %
12.02.2020 05:04 3,8 C 3,3 C 2,8 C 84 % 1011,5 hPa 0,0 l/m 0 min 0 min 0 W/m 19,3 km/h (3 Bft) 91,49 %
12.02.2020 05:06 3,8 C 3,3 C 2,8 C 84 % 1011,5 hPa 0,0 l/m 0 min 0 min 0 W/m 19,3 km/h (3 Bft) 93,62 %
12.02.2020 05:08 3,8 C 2,8 C 2,2 C 84 % 1011,5 hPa 0,0 l/m 0 min 0 min 0 W/m 16,1 km/h (3 Bft) 93,62 %
12.02.2020 05:10 3,8 C 3,3 C 2,8 C 84 % 1011,6 hPa 0,0 l/m 0 min 0 min 0 W/m 22,5 km/h (4 Bft) 93,62 %
12.02.2020 05:12 3,8 C 3,3 C 2,8 C 84 % 1011,6 hPa 0,0 l/m 0 min 0 min 0 W/m 32,2 km/h (5 Bft) 91,49 %
12.02.2020 05:14 3,8 C 3,3 C 2,8 C 84 % 1011,5 hPa 0,0 l/m 0 min 0 min 0 W/m 22,5 km/h (4 Bft) 93,62 %
12.02.2020 05:16 3,8 C 3,3 C 2,8 C 84 % 1011,6 hPa 0,0 l/m 0 min 0 min 0 W/m 29,0 km/h (5 Bft) 91,30 %
12.02.2020 05:18 3,8 C 3,3 C 2,8 C 84 % 1011,6 hPa 0,0 l/m 0 min 0 min 0 W/m 32,2 km/h (5 Bft) 93,62 %
12.02.2020 05:20 3,8 C 3,3 C 2,2 C 84 % 1011,8 hPa 0,0 l/m 0 min 0 min 0 W/m 29,0 km/h (5 Bft) 93,62 %
12.02.2020 05:22 3,8 C 3,3 C 2,2 C 84 % 1011,5 hPa 0,0 l/m 0 min 0 min 0 W/m 29,0 km/h (5 Bft) 95,74 %
12.02.2020 05:24 3,8 C 3,3 C 2,8 C 84 % 1011,6 hPa 0,0 l/m 0 min 0 min 0 W/m 25,7 km/h (4 Bft) 95,74 %
12.02.2020 05:26 3,8 C 3,3 C 2,8 C 84 % 1011,6 hPa 0,0 l/m 0 min 0 min 0 W/m 29,0 km/h (5 Bft) 95,12 %
12.02.2020 05:28 3,8 C 3,3 C 2,8 C 84 % 1011,9 hPa 0,0 l/m 0 min 0 min 0 W/m 25,7 km/h (4 Bft) 95,83 %
12.02.2020 05:30 3,8 C 3,3 C 2,8 C 84 % 1011,7 hPa 0,0 l/m 0 min 0 min 0 W/m 29,0 km/h (5 Bft) 95,74 %
12.02.2020 05:32 3,8 C 3,3 C 2,8 C 84 % 1011,6 hPa 0,0 l/m 0 min 0 min 0 W/m 25,7 km/h (4 Bft) 93,75 %
12.02.2020 05:34 3,8 C 3,3 C 2,8 C 84 % 1011,7 hPa 0,0 l/m 0 min 0 min 0 W/m 29,0 km/h (5 Bft) 95,65 %
12.02.2020 05:36 3,8 C 3,3 C 2,8 C 84 % 1011,7 hPa 0,0 l/m 0 min 0 min 0 W/m 22,5 km/h (4 Bft) 95,74 %
12.02.2020 05:38 3,8 C 3,3 C 2,2 C 84 % 1011,7 hPa 0,0 l/m 0 min 0 min 0 W/m 12,9 km/h (3 Bft) 97,87 %
12.02.2020 05:40 3,8 C 3,3 C 2,8 C 84 % 1011,7 hPa 0,0 l/m 0 min 0 min 0 W/m 22,5 km/h (4 Bft) 97,92 %
12.02.2020 05:42 3,8 C 3,3 C 2,8 C 84 % 1011,7 hPa 0,0 l/m 0 min 0 min 0 W/m 32,2 km/h (5 Bft) 97,87 %
12.02.2020 05:44 3,8 C 3,3 C 2,2 C 84 % 1011,7 hPa 0,0 l/m 0 min 0 min 0 W/m 16,1 km/h (3 Bft) 95,74 %
12.02.2020 05:46 3,8 C 3,3 C 2,2 C 84 % 1011,8 hPa 0,0 l/m 0 min 0 min 0 W/m 25,7 km/h (4 Bft) 97,87 %
12.02.2020 05:48 3,8 C 3,3 C 2,8 C 84 % 1011,8 hPa 0,0 l/m 0 min 0 min 0 W/m 19,3 km/h (3 Bft) 97,87 %
12.02.2020 05:50 3,8 C 3,3 C 2,8 C 84 % 1011,8 hPa 0,0 l/m 0 min 0 min 0 W/m 22,5 km/h (4 Bft) 97,92 %
12.02.2020 05:52 3,8 C 3,3 C 2,8 C 84 % 1011,8 hPa 0,0 l/m 0 min 0 min 0 W/m 16,1 km/h (3 Bft) 97,87 %
12.02.2020 05:54 3,8 C 3,3 C 2,8 C 85 % 1011,8 hPa 0,0 l/m 0 min 0 min 0 W/m 22,5 km/h (4 Bft) 100,00 %
12.02.2020 05:56 3,8 C 3,3 C 2,8 C 85 % 1011,8 hPa 0,0 l/m 0 min 0 min 0 W/m 22,5 km/h (4 Bft) 100,00 %
12.02.2020 05:58 3,8 C 3,3 C 2,8 C 85 % 1011,7 hPa 0,0 l/m 0 min 0 min 0 W/m 22,5 km/h (4 Bft) 95,74 %
12.02.2020 06:00 3,8 C 3,3 C 2,8 C 85 % 1011,8 hPa 0,0 l/m 0 min 0 min 0 W/m 22,5 km/h (4 Bft) 100,00 %
12.02.2020 06:02 3,8 C 3,3 C 2,8 C 85 % 1011,9 hPa 0,0 l/m 0 min 0 min 0 W/m 25,7 km/h (4 Bft) 100,00 %
12.02.2020 06:04 3,8 C 3,3 C 2,8 C 85 % 1011,7 hPa 0,0 l/m 0 min 0 min 0 W/m 29,0 km/h (5 Bft) 100,00 %
12.02.2020 06:06 3,8 C 3,3 C 2,8 C 85 % 1011,8 hPa 0,0 l/m 0 min 0 min 0 W/m 32,2 km/h (5 Bft) 100,00 %
12.02.2020 06:08 3,8 C 3,3 C 2,8 C 85 % 1011,8 hPa 0,0 l/m 0 min 0 min 0 W/m 25,7 km/h (4 Bft) 100,00 %
12.02.2020 06:10 3,8 C 3,3 C 2,8 C 85 % 1011,8 hPa 0,0 l/m 0 min 0 min 0 W/m 16,1 km/h (3 Bft) 100,00 %
12.02.2020 06:12 3,9 C 3,3 C 2,8 C 85 % 1011,8 hPa 0,0 l/m 0 min 0 min 0 W/m 22,5 km/h (4 Bft) 100,00 %
12.02.2020 06:14 3,9 C 3,3 C 2,8 C 85 % 1011,8 hPa 0,0 l/m 0 min 0 min 0 W/m 19,3 km/h (3 Bft) 100,00 %
12.02.2020 06:16 3,9 C 3,3 C 2,8 C 85 % 1011,9 hPa 0,0 l/m 0 min 0 min 0 W/m 16,1 km/h (3 Bft) 97,92 %
12.02.2020 06:18 3,9 C 3,3 C 2,8 C 85 % 1011,8 hPa 0,0 l/m 0 min 0 min 0 W/m 16,1 km/h (3 Bft) 100,00 %
12.02.2020 06:20 3,9 C 3,3 C 2,8 C 85 % 1011,8 hPa 0,0 l/m 0 min 0 min 0 W/m 32,2 km/h (5 Bft) 100,00 %
12.02.2020 06:22 3,9 C 3,3 C 2,8 C 85 % 1011,8 hPa 0,0 l/m 0 min 0 min 0 W/m 12,9 km/h (3 Bft) 100,00 %
12.02.2020 06:24 3,9 C 3,3 C 2,8 C 85 % 1012,1 hPa 0,0 l/m 0 min 0 min 0 W/m 32,2 km/h (5 Bft) 95,74 %
12.02.2020 06:26 3,9 C 3,3 C 2,8 C 85 % 1011,8 hPa 0,0 l/m 0 min 0 min 0 W/m 22,5 km/h (4 Bft) 100,00 %
12.02.2020 06:28 3,9 C 3,3 C 2,8 C 85 % 1011,8 hPa 0,0 l/m 0 min 0 min 0 W/m 35,4 km/h (5 Bft) 100,00 %
12.02.2020 06:30 3,9 C 3,3 C 2,8 C 85 % 1011,8 hPa 0,0 l/m 0 min 0 min 0 W/m 29,0 km/h (5 Bft) 100,00 %
12.02.2020 06:32 3,9 C 3,3 C 2,8 C 85 % 1011,9 hPa 0,0 l/m 0 min 0 min 0 W/m 22,5 km/h (4 Bft) 100,00 %
12.02.2020 06:34 3,9 C 3,3 C 2,8 C 85 % 1011,9 hPa 0,0 l/m 0 min 0 min 0 W/m 16,1 km/h (3 Bft) 100,00 %
12.02.2020 06:36 3,9 C 3,3 C 2,8 C 85 % 1011,9 hPa 0,0 l/m 0 min 0 min 0 W/m 22,5 km/h (4 Bft) 100,00 %
12.02.2020 06:38 3,9 C 3,3 C 2,8 C 85 % 1011,9 hPa 0,0 l/m 0 min 0 min 0 W/m 16,1 km/h (3 Bft) 100,00 %
12.02.2020 06:40 3,9 C 3,3 C 2,8 C 85 % 1011,8 hPa 0,0 l/m 0 min 0 min 0 W/m 19,3 km/h (3 Bft) 100,00 %
12.02.2020 06:42 3,9 C 3,3 C 2,8 C 85 % 1011,8 hPa 0,0 l/m 0 min 0 min 0 W/m 22,5 km/h (4 Bft) 100,00 %
12.02.2020 06:44 3,9 C 3,3 C 2,8 C 85 % 1011,8 hPa 0,0 l/m 0 min 0 min 0 W/m 25,7 km/h (4 Bft) 97,83 %
12.02.2020 06:46 3,9 C 3,3 C 2,8 C 85 % 1011,8 hPa 0,0 l/m 0 min 0 min 0 W/m 25,7 km/h (4 Bft) 97,92 %
12.02.2020 06:48 3,8 C 2,8 C 2,2 C 85 % 1011,9 hPa 0,0 l/m 0 min 0 min 0 W/m 19,3 km/h (3 Bft) 97,87 %
12.02.2020 06:50 3,8 C 2,8 C 2,2 C 85 % 1011,9 hPa 0,0 l/m 0 min 0 min 0 W/m 19,3 km/h (3 Bft) 100,00 %
12.02.2020 06:52 3,8 C 2,8 C 2,2 C 85 % 1011,8 hPa 0,0 l/m 0 min 0 min 0 W/m 16,1 km/h (3 Bft) 97,87 %
12.02.2020 06:54 3,8 C 2,8 C 2,2 C 85 % 1011,9 hPa 0,0 l/m 0 min 0 min 0 W/m 25,7 km/h (4 Bft) 100,00 %
12.02.2020 06:56 3,8 C 2,8 C 2,2 C 85 % 1011,8 hPa 0,0 l/m 0 min 0 min 0 W/m 25,7 km/h (4 Bft) 97,87 %
12.02.2020 06:58 3,8 C 2,8 C 2,2 C 85 % 1011,8 hPa 0,0 l/m 0 min 0 min 0 W/m 19,3 km/h (3 Bft) 100,00 %
12.02.2020 07:00 3,8 C 2,8 C 2,2 C 85 % 1011,8 hPa 0,0 l/m 0 min 0 min 0 W/m 22,5 km/h (4 Bft) 100,00 %
12.02.2020 07:02 3,7 C 2,8 C 2,2 C 85 % 1011,9 hPa 0,0 l/m 0 min 0 min 0 W/m 22,5 km/h (4 Bft) 97,83 %
12.02.2020 07:04 3,7 C 2,8 C 2,2 C 85 % 1011,8 hPa 0,0 l/m 0 min 0 min 0 W/m 22,5 km/h (4 Bft) 100,00 %
12.02.2020 07:06 3,7 C 2,8 C 2,2 C 86 % 1011,9 hPa 0,0 l/m 0 min 0 min 0 W/m 22,5 km/h (4 Bft) 93,62 %
12.02.2020 07:08 3,7 C 2,8 C 2,2 C 86 % 1011,9 hPa 0,0 l/m 0 min 0 min 0 W/m 16,1 km/h (3 Bft) 97,56 %
12.02.2020 07:10 3,7 C 2,8 C 2,2 C 86 % 1011,9 hPa 0,0 l/m 0 min 0 min 0 W/m 25,7 km/h (4 Bft) 97,92 %
12.02.2020 07:12 3,7 C 3,3 C 2,2 C 86 % 1011,9 hPa 0,0 l/m 0 min 0 min 0 W/m 22,5 km/h (4 Bft) 97,87 %
12.02.2020 07:14 3,7 C 3,3 C 2,2 C 86 % 1011,9 hPa 0,0 l/m 0 min 0 min 0 W/m 32,2 km/h (5 Bft) 95,74 %
12.02.2020 07:16 3,7 C 3,3 C 2,2 C 86 % 1012,0 hPa 0,0 l/m 0 min 0 min 0 W/m 29,0 km/h (5 Bft) 97,92 %
12.02.2020 07:18 3,7 C 3,3 C 2,2 C 86 % 1012,1 hPa 0,0 l/m 0 min 0 min 0 W/m 32,2 km/h (5 Bft) 95,74 %
12.02.2020 07:20 3,7 C 3,3 C 2,2 C 86 % 1012,1 hPa 0,0 l/m 0 min 0 min 0 W/m 29,0 km/h (5 Bft) 100,00 %
12.02.2020 07:22 3,7 C 2,8 C 2,2 C 86 % 1012,2 hPa 0,0 l/m 0 min 0 min 0 W/m 22,5 km/h (4 Bft) 97,92 %
12.02.2020 07:24 3,7 C 2,8 C 2,2 C 86 % 1012,2 hPa 0,0 l/m 0 min 0 min 0 W/m 22,5 km/h (4 Bft) 97,87 %
12.02.2020 07:26 3,7 C 2,8 C 2,2 C 86 % 1012,2 hPa 0,0 l/m 0 min 0 min 0 W/m 32,2 km/h (5 Bft) 97,92 %
12.02.2020 07:28 3,7 C 2,8 C 2,2 C 86 % 1012,2 hPa 0,0 l/m 0 min 0 min 0 W/m 25,7 km/h (4 Bft) 97,87 %
12.02.2020 07:30 3,7 C 2,8 C 2,2 C 86 % 1012,4 hPa 0,0 l/m 0 min 0 min 0 W/m 19,3 km/h (3 Bft) 97,87 %
12.02.2020 07:32 3,7 C 2,8 C 2,2 C 86 % 1012,1 hPa 0,0 l/m 0 min 0 min 0 W/m 32,2 km/h (5 Bft) 95,74 %
12.02.2020 07:34 3,7 C 2,8 C 2,2 C 86 % 1012,2 hPa 0,0 l/m 0 min 0 min 0 W/m 19,3 km/h (3 Bft) 97,87 %
12.02.2020 07:36 3,7 C 2,8 C 2,2 C 86 % 1012,2 hPa 0,0 l/m 0 min 0 min 0 W/m 16,1 km/h (3 Bft) 93,48 %
12.02.2020 07:38 3,7 C 2,8 C 2,2 C 86 % 1012,3 hPa 0,0 l/m 0 min 0 min 0 W/m 25,7 km/h (4 Bft) 95,74 %
12.02.2020 07:40 3,6 C 2,8 C 2,2 C 86 % 1012,2 hPa 0,0 l/m 0 min 0 min 0 W/m 25,7 km/h (4 Bft) 93,62 %
12.02.2020 07:42 3,6 C 2,8 C 2,2 C 86 % 1012,3 hPa 0,0 l/m 0 min 0 min 0 W/m 32,2 km/h (5 Bft) 93,62 %
12.02.2020 07:44 3,6 C 2,8 C 2,2 C 86 % 1012,3 hPa 0,0 l/m 0 min 0 min 0 W/m 19,3 km/h (3 Bft) 93,62 %
12.02.2020 07:46 3,6 C 2,8 C 2,2 C 86 % 1012,3 hPa 0,0 l/m 0 min 0 min 0 W/m 16,1 km/h (3 Bft) 95,74 %
12.02.2020 07:48 3,6 C 2,8 C 2,2 C 86 % 1012,2 hPa 0,0 l/m 0 min 0 min 0 W/m 22,5 km/h (4 Bft) 97,83 %
12.02.2020 07:50 3,6 C 2,8 C 2,2 C 86 % 1012,4 hPa 0,0 l/m 0 min 0 min 0 W/m 25,7 km/h (4 Bft) 97,62 %
12.02.2020 07:52 3,6 C 2,8 C 2,2 C 86 % 1012,5 hPa 0,0 l/m 0 min 0 min 0 W/m 35,4 km/h (5 Bft) 97,92 %
12.02.2020 07:54 3,6 C 2,8 C 2,2 C 86 % 1012,6 hPa 0,0 l/m 0 min 0 min 0 W/m 32,2 km/h (5 Bft) 95,65 %
12.02.2020 07:56 3,6 C 2,8 C 2,2 C 86 % 1012,6 hPa 0,0 l/m 0 min 0 min 4 W/m 16,1 km/h (3 Bft) 97,87 %
12.02.2020 07:58 3,6 C 2,8 C 2,2 C 86 % 1012,6 hPa 0,0 l/m 0 min 0 min 5 W/m 22,5 km/h (4 Bft) 97,83 %
12.02.2020 08:00 3,5 C 2,8 C 2,2 C 87 % 1012,7 hPa 0,0 l/m 0 min 0 min 9 W/m 22,5 km/h (4 Bft) 97,92 %
12.02.2020 08:02 3,6 C 2,8 C 2,2 C 87 % 1012,7 hPa 0,0 l/m 0 min 0 min 11 W/m 22,5 km/h (4 Bft) 97,87 %
12.02.2020 08:04 3,6 C 3,3 C 2,2 C 87 % 1012,7 hPa 0,0 l/m 0 min 0 min 9 W/m 25,7 km/h (4 Bft) 97,87 %
12.02.2020 08:06 3,6 C 3,3 C 2,8 C 87 % 1012,7 hPa 0,0 l/m 0 min 0 min 7 W/m 19,3 km/h (3 Bft) 95,83 %
12.02.2020 08:08 3,6 C 3,3 C 2,8 C 87 % 1012,7 hPa 0,0 l/m 0 min 0 min 8 W/m 19,3 km/h (3 Bft) 97,87 %
12.02.2020 08:10 3,6 C 3,3 C 2,8 C 87 % 1012,8 hPa 0,0 l/m 0 min 0 min 10 W/m 19,3 km/h (3 Bft) 97,87 %
12.02.2020 08:12 3,6 C 3,3 C 2,8 C 87 % 1012,8 hPa 0,0 l/m 0 min 0 min 12 W/m 22,5 km/h (4 Bft) 95,74 %
12.02.2020 08:14 3,6 C 3,3 C 2,8 C 87 % 1012,7 hPa 0,0 l/m 0 min 0 min 14 W/m 25,7 km/h (4 Bft) 97,92 %
12.02.2020 08:16 3,7 C 3,3 C 2,8 C 87 % 1012,8 hPa 0,0 l/m 0 min 0 min 18 W/m 19,3 km/h (3 Bft) 95,65 %
12.02.2020 08:18 3,7 C 3,3 C 2,8 C 87 % 1012,9 hPa 0,0 l/m 0 min 0 min 18 W/m 19,3 km/h (3 Bft) 93,62 %
12.02.2020 08:20 3,7 C 3,3 C 2,8 C 87 % 1012,7 hPa 0,0 l/m 0 min 0 min 19 W/m 25,7 km/h (4 Bft) 95,74 %
12.02.2020 08:22 3,7 C 3,3 C 2,8 C 87 % 1012,7 hPa 0,0 l/m 0 min 0 min 21 W/m 25,7 km/h (4 Bft) 97,87 %
12.02.2020 08:24 3,7 C 3,3 C 2,8 C 87 % 1012,8 hPa 0,0 l/m 0 min 0 min 23 W/m 19,3 km/h (3 Bft) 97,92 %
12.02.2020 08:26 3,7 C 3,3 C 2,8 C 87 % 1012,7 hPa 0,0 l/m 0 min 0 min 25 W/m 25,7 km/h (4 Bft) 100,00 %
12.02.2020 08:28 3,7 C 3,3 C 2,8 C 87 % 1012,8 hPa 0,0 l/m 0 min 0 min 26 W/m 16,1 km/h (3 Bft) 100,00 %
12.02.2020 08:30 3,7 C 3,3 C 2,8 C 87 % 1012,7 hPa 0,0 l/m 0 min 0 min 28 W/m 25,7 km/h (4 Bft) 100,00 %
12.02.2020 08:32 3,7 C 3,3 C 2,8 C 87 % 1012,8 hPa 0,0 l/m 0 min 0 min 31 W/m 22,5 km/h (4 Bft) 100,00 %
12.02.2020 08:34 3,7 C 3,3 C 2,8 C 87 % 1012,8 hPa 0,0 l/m 0 min 0 min 34 W/m 19,3 km/h (3 Bft) 100,00 %
12.02.2020 08:36 3,7 C 3,3 C 2,8 C 87 % 1012,8 hPa 0,0 l/m 0 min 0 min 35 W/m 22,5 km/h (4 Bft) 100,00 %
12.02.2020 08:38 3,7 C 3,3 C 2,8 C 87 % 1012,9 hPa 0,0 l/m 0 min 0 min 37 W/m 25,7 km/h (4 Bft) 100,00 %
12.02.2020 08:40 3,7 C 3,3 C 2,8 C 87 % 1012,8 hPa 0,0 l/m 0 min 0 min 40 W/m 22,5 km/h (4 Bft) 97,83 %
12.02.2020 08:42 3,7 C 3,3 C 2,8 C 87 % 1012,9 hPa 0,0 l/m 0 min 0 min 44 W/m 25,7 km/h (4 Bft) 97,92 %
12.02.2020 08:44 3,8 C 3,3 C 2,8 C 87 % 1012,9 hPa 0,0 l/m 0 min 0 min 48 W/m 25,7 km/h (4 Bft) 97,92 %
12.02.2020 08:46 3,8 C 3,3 C 2,8 C 87 % 1013,0 hPa 0,0 l/m 0 min 0 min 49 W/m 35,4 km/h (5 Bft) 97,87 %
12.02.2020 08:48 3,8 C 3,9 C 2,8 C 87 % 1012,8 hPa 0,0 l/m 0 min 0 min 52 W/m 35,4 km/h (5 Bft) 97,87 %
12.02.2020 08:50 3,8 C 3,9 C 2,8 C 87 % 1012,9 hPa 0,0 l/m 0 min 0 min 54 W/m 25,7 km/h (4 Bft) 97,87 %
12.02.2020 08:52 3,8 C 3,9 C 2,8 C 87 % 1013,0 hPa 0,0 l/m 0 min 0 min 57 W/m 19,3 km/h (3 Bft) 97,92 %
12.02.2020 08:54 3,8 C 3,9 C 2,8 C 87 % 1013,0 hPa 0,0 l/m 0 min 0 min 59 W/m 22,5 km/h (4 Bft) 97,87 %
12.02.2020 08:56 3,9 C 3,9 C 2,8 C 87 % 1013,0 hPa 0,0 l/m 0 min 0 min 60 W/m 29,0 km/h (5 Bft) 97,87 %
12.02.2020 08:58 3,9 C 3,9 C 2,8 C 87 % 1013,0 hPa 0,0 l/m 0 min 0 min 60 W/m 22,5 km/h (4 Bft) 97,92 %
12.02.2020 09:00 3,9 C 3,9 C 2,8 C 87 % 1013,1 hPa 0,0 l/m 0 min 0 min 62 W/m 19,3 km/h (3 Bft) 97,87 %
12.02.2020 09:02 3,9 C 3,9 C 2,8 C 87 % 1013,1 hPa 0,0 l/m 0 min 0 min 64 W/m 16,1 km/h (3 Bft) 97,87 %
12.02.2020 09:04 3,9 C 3,9 C 3,3 C 87 % 1013,1 hPa 0,0 l/m 0 min 0 min 66 W/m 22,5 km/h (4 Bft) 97,87 %
12.02.2020 09:06 4,0 C 3,9 C 3,3 C 87 % 1013,1 hPa 0,0 l/m 0 min 0 min 68 W/m 19,3 km/h (3 Bft) 97,87 %
12.02.2020 09:08 4,0 C 3,9 C 3,3 C 87 % 1013,1 hPa 0,0 l/m 0 min 0 min 69 W/m 22,5 km/h (4 Bft) 97,56 %
12.02.2020 09:10 4,1 C 3,9 C 3,3 C 86 % 1013,1 hPa 0,0 l/m 0 min 0 min 70 W/m 19,3 km/h (3 Bft) 95,83 %
12.02.2020 09:12 4,1 C 3,9 C 3,3 C 86 % 1013,2 hPa 0,0 l/m 0 min 0 min 73 W/m 41,8 km/h (6 Bft) 97,87 %
12.02.2020 09:14 4,1 C 3,9 C 3,3 C 86 % 1013,2 hPa 0,0 l/m 0 min 0 min 75 W/m 19,3 km/h (3 Bft) 97,83 %
12.02.2020 09:16 4,1 C 4,4 C 3,3 C 86 % 1013,2 hPa 0,0 l/m 0 min 0 min 77 W/m 32,2 km/h (5 Bft) 93,75 %
12.02.2020 09:18 4,1 C 4,4 C 3,3 C 86 % 1013,2 hPa 0,0 l/m 0 min 0 min 79 W/m 25,7 km/h (4 Bft) 95,83 %
12.02.2020 09:20 4,2 C 4,4 C 3,3 C 86 % 1013,2 hPa 0,0 l/m 0 min 0 min 75 W/m 32,2 km/h (5 Bft) 97,92 %
12.02.2020 09:22 4,2 C 4,4 C 3,3 C 86 % 1013,2 hPa 0,0 l/m 0 min 0 min 74 W/m 29,0 km/h (5 Bft) 95,83 %
12.02.2020 09:24 4,2 C 4,4 C 3,3 C 86 % 1013,2 hPa 0,0 l/m 0 min 0 min 75 W/m 29,0 km/h (5 Bft) 93,62 %
12.02.2020 09:26 4,2 C 4,4 C 3,3 C 86 % 1013,3 hPa 0,0 l/m 0 min 0 min 76 W/m 29,0 km/h (5 Bft) 97,87 %
12.02.2020 09:28 4,3 C 4,4 C 3,3 C 86 % 1013,4 hPa 0,0 l/m 0 min 0 min 79 W/m 22,5 km/h (4 Bft) 95,74 %
12.02.2020 09:30 4,3 C 4,4 C 3,3 C 86 % 1013,4 hPa 0,0 l/m 0 min 0 min 76 W/m 22,5 km/h (4 Bft) 97,87 %
12.02.2020 09:32 4,3 C 4,4 C 3,3 C 86 % 1013,4 hPa 0,0 l/m 0 min 0 min 77 W/m 32,2 km/h (5 Bft) 95,65 %
12.02.2020 09:34 4,3 C 4,4 C 3,3 C 86 % 1013,4 hPa 0,0 l/m 0 min 0 min 75 W/m 19,3 km/h (3 Bft) 97,87 %
12.02.2020 09:36 4,3 C 4,4 C 3,3 C 86 % 1013,3 hPa 0,0 l/m 0 min 0 min 76 W/m 35,4 km/h (5 Bft) 95,74 %
12.02.2020 09:38 4,3 C 4,4 C 3,3 C 86 % 1013,4 hPa 0,0 l/m 0 min 0 min 79 W/m 22,5 km/h (4 Bft) 93,62 %
12.02.2020 09:40 4,3 C 4,4 C 3,3 C 86 % 1013,3 hPa 0,0 l/m 0 min 0 min 82 W/m 25,7 km/h (4 Bft) 95,12 %
12.02.2020 09:42 4,3 C 4,4 C 3,3 C 86 % 1013,4 hPa 0,0 l/m 0 min 0 min 83 W/m 32,2 km/h (5 Bft) 97,87 %
12.02.2020 09:44 4,3 C 4,4 C 3,3 C 86 % 1013,4 hPa 0,0 l/m 0 min 0 min 89 W/m 29,0 km/h (5 Bft) 97,87 %
12.02.2020 09:46 4,3 C 4,4 C 3,3 C 86 % 1013,4 hPa 0,0 l/m 0 min 0 min 101 W/m 19,3 km/h (3 Bft) 97,92 %
12.02.2020 09:48 4,3 C 5,0 C 3,3 C 86 % 1013,4 hPa 0,0 l/m 2 min 0 min 141 W/m 19,3 km/h (3 Bft) 56,52 %
12.02.2020 09:50 4,3 C 6,1 C 3,9 C 86 % 1013,5 hPa 0,0 l/m 2 min 0 min 221 W/m 25,7 km/h (4 Bft) 97,87 %
12.02.2020 09:52 4,4 C 6,7 C 3,9 C 86 % 1013,6 hPa 0,0 l/m 2 min 0 min 267 W/m 22,5 km/h (4 Bft) 95,74 %
12.02.2020 09:54 4,6 C 7,2 C 3,9 C 86 % 1013,6 hPa 0,0 l/m 2 min 0 min 281 W/m 22,5 km/h (4 Bft) 93,62 %
12.02.2020 09:56 4,6 C 7,8 C 4,4 C 86 % 1013,6 hPa 0,0 l/m 2 min 0 min 305 W/m 22,5 km/h (4 Bft) 93,75 %
12.02.2020 09:58 4,7 C 7,8 C 4,4 C 86 % 1013,6 hPa 0,0 l/m 2 min 0 min 344 W/m 19,3 km/h (3 Bft) 97,92 %
12.02.2020 10:00 4,8 C 7,8 C 4,4 C 86 % 1013,6 hPa 0,0 l/m 2 min 0 min 240 W/m 38,6 km/h (5 Bft) 97,87 %
12.02.2020 10:02 4,9 C 8,3 C 5,0 C 85 % 1013,6 hPa 0,0 l/m 2 min 0 min 375 W/m 16,1 km/h (3 Bft) 95,74 %
12.02.2020 10:04 5,1 C 8,3 C 5,0 C 85 % 1013,5 hPa 0,0 l/m 2 min 0 min 281 W/m 35,4 km/h (5 Bft) 97,62 %
12.02.2020 10:06 5,1 C 8,3 C 5,0 C 85 % 1013,5 hPa 0,0 l/m 2 min 0 min 303 W/m 25,7 km/h (4 Bft) 95,74 %
12.02.2020 10:08 5,2 C 7,8 C 5,0 C 85 % 1013,6 hPa 0,0 l/m 2 min 0 min 272 W/m 25,7 km/h (4 Bft) 97,92 %
12.02.2020 10:10 5,3 C 6,7 C 5,0 C 84 % 1013,5 hPa 0,0 l/m 2 min 0 min 163 W/m 29,0 km/h (5 Bft) 95,83 %
12.02.2020 10:12 5,3 C 6,7 C 4,4 C 84 % 1013,6 hPa 0,0 l/m 2 min 0 min 216 W/m 19,3 km/h (3 Bft) 97,87 %
12.02.2020 10:14 5,3 C 6,1 C 4,4 C 84 % 1013,6 hPa 0,0 l/m 2 min 0 min 172 W/m 16,1 km/h (3 Bft) 95,83 %
12.02.2020 10:16 5,4 C 6,7 C 4,4 C 83 % 1013,6 hPa 0,0 l/m 2 min 0 min 192 W/m 19,3 km/h (3 Bft) 93,75 %
12.02.2020 10:18 5,4 C 6,7 C 4,4 C 83 % 1013,5 hPa 0,0 l/m 2 min 0 min 213 W/m 22,5 km/h (4 Bft) 95,65 %
12.02.2020 10:20 5,3 C 6,1 C 4,4 C 83 % 1013,6 hPa 0,0 l/m 2 min 0 min 217 W/m 25,7 km/h (4 Bft) 95,74 %
12.02.2020 10:22 5,3 C 6,1 C 4,4 C 83 % 1013,6 hPa 0,0 l/m 2 min 0 min 194 W/m 16,1 km/h (3 Bft) 95,74 %
12.02.2020 10:24 5,3 C 6,1 C 4,4 C 83 % 1013,5 hPa 0,0 l/m 2 min 0 min 196 W/m 22,5 km/h (4 Bft) 97,87 %
12.02.2020 10:26 5,3 C 6,1 C 4,4 C 83 % 1013,6 hPa 0,0 l/m 2 min 0 min 174 W/m 35,4 km/h (5 Bft) 95,74 %
12.02.2020 10:28 5,3 C 5,6 C 4,4 C 82 % 1013,6 hPa 0,0 l/m 0 min 0 min 152 W/m 25,7 km/h (4 Bft) 93,62 %
12.02.2020 10:30 5,3 C 5,6 C 4,4 C 82 % 1013,6 hPa 0,0 l/m 0 min 0 min 130 W/m 22,5 km/h (4 Bft) 95,65 %
12.02.2020 10:32 5,3 C 5,6 C 4,4 C 83 % 1013,6 hPa 0,0 l/m 0 min 0 min 125 W/m 29,0 km/h (5 Bft) 95,74 %
12.02.2020 10:34 5,3 C 6,1 C 4,4 C 82 % 1013,6 hPa 0,0 l/m 2 min 0 min 210 W/m 22,5 km/h (4 Bft) 95,24 %
12.02.2020 10:36 5,3 C 6,7 C 5,0 C 82 % 1013,6 hPa 0,0 l/m 2 min 0 min 342 W/m 25,7 km/h (4 Bft) 93,48 %
12.02.2020 10:38 5,4 C 6,7 C 5,0 C 82 % 1013,6 hPa 0,0 l/m 2 min 0 min 210 W/m 19,3 km/h (3 Bft) 97,92 %
12.02.2020 10:40 5,4 C 6,1 C 5,0 C 82 % 1013,7 hPa 0,0 l/m 0 min 0 min 134 W/m 16,1 km/h (3 Bft) 97,87 %
12.02.2020 10:42 5,4 C 5,6 C 5,0 C 82 % 1013,6 hPa 0,0 l/m 0 min 0 min 126 W/m 22,5 km/h (4 Bft) 97,92 %
12.02.2020 10:44 5,5 C 5,6 C 4,4 C 82 % 1013,7 hPa 0,0 l/m 0 min 0 min 104 W/m 22,5 km/h (4 Bft) 98,00 %
12.02.2020 10:46 5,4 C 6,1 C 4,4 C 82 % 1013,7 hPa 0,0 l/m 0 min 0 min 123 W/m 22,5 km/h (4 Bft) 95,74 %
12.02.2020 10:48 5,4 C 6,7 C 4,4 C 82 % 1013,6 hPa 0,0 l/m 2 min 0 min 194 W/m 25,7 km/h (4 Bft) 97,87 %
12.02.2020 10:50 5,4 C 6,1 C 4,4 C 82 % 1013,7 hPa 0,0 l/m 0 min 0 min 160 W/m 22,5 km/h (4 Bft) 97,87 %
12.02.2020 10:52 5,4 C 6,7 C 4,4 C 82 % 1013,7 hPa 0,0 l/m 2 min 0 min 205 W/m 25,7 km/h (4 Bft) 97,87 %
12.02.2020 10:54 5,4 C 7,2 C 4,4 C 82 % 1013,8 hPa 0,0 l/m 2 min 0 min 232 W/m 25,7 km/h (4 Bft) 100,00 %
12.02.2020 10:56 5,5 C 6,7 C 4,4 C 82 % 1013,8 hPa 0,0 l/m 2 min 0 min 207 W/m 25,7 km/h (4 Bft) 100,00 %
12.02.2020 10:58 5,5 C 6,7 C 5,0 C 82 % 1013,8 hPa 0,0 l/m 2 min 0 min 222 W/m 22,5 km/h (4 Bft) 100,00 %
12.02.2020 11:00 5,5 C 6,1 C 5,0 C 82 % 1013,8 hPa 0,0 l/m 0 min 0 min 165 W/m 22,5 km/h (4 Bft) 100,00 %
12.02.2020 11:02 5,6 C 6,1 C 5,0 C 81 % 1013,8 hPa 0,0 l/m 0 min 0 min 136 W/m 38,6 km/h (5 Bft) 95,83 %
12.02.2020 11:04 5,6 C 6,1 C 5,0 C 81 % 1013,9 hPa 0,0 l/m 0 min 0 min 159 W/m 35,4 km/h (5 Bft) 96,00 %
12.02.2020 11:06 5,6 C 6,1 C 5,0 C 81 % 1013,9 hPa 0,0 l/m 0 min 0 min 171 W/m 35,4 km/h (5 Bft) 100,00 %
12.02.2020 11:08 5,6 C 6,1 C 5,0 C 81 % 1013,9 hPa 0,0 l/m 2 min 0 min 188 W/m 22,5 km/h (4 Bft) 82,98 %
12.02.2020 11:10 5,6 C 7,2 C 5,0 C 81 % 1013,9 hPa 0,0 l/m 2 min 0 min 188 W/m 22,5 km/h (4 Bft) 68,42 %
12.02.2020 11:12 5,7 C 7,2 C 5,0 C 81 % 1013,9 hPa 0,0 l/m 2 min 0 min 199 W/m 22,5 km/h (4 Bft) 100,00 %
12.02.2020 11:14 5,7 C 6,7 C 5,0 C 81 % 1014,1 hPa 0,0 l/m 2 min 0 min 217 W/m 25,7 km/h (4 Bft) 100,00 %
12.02.2020 11:16 5,7 C 6,7 C 5,0 C 81 % 1013,9 hPa 0,0 l/m 0 min 0 min 180 W/m 22,5 km/h (4 Bft) 100,00 %
12.02.2020 11:18 5,8 C 7,2 C 5,0 C 81 % 1014,1 hPa 0,0 l/m 0 min 0 min 176 W/m 16,1 km/h (3 Bft) 100,00 %
12.02.2020 11:20 5,8 C 7,8 C 5,0 C 81 % 1014,0 hPa 0,0 l/m 2 min 0 min 266 W/m 19,3 km/h (3 Bft) 100,00 %
12.02.2020 11:22 5,9 C 7,8 C 5,6 C 80 % 1014,0 hPa 0,0 l/m 2 min 0 min 315 W/m 29,0 km/h (5 Bft) 100,00 %
12.02.2020 11:24 5,9 C 8,3 C 5,6 C 80 % 1014,0 hPa 0,0 l/m 2 min 0 min 335 W/m 19,3 km/h (3 Bft) 100,00 %
12.02.2020 11:26 6,0 C 7,8 C 5,6 C 79 % 1014,0 hPa 0,0 l/m 2 min 0 min 366 W/m 32,2 km/h (5 Bft) 100,00 %
12.02.2020 11:28 6,0 C 8,3 C 5,6 C 79 % 1014,1 hPa 0,0 l/m 2 min 0 min 408 W/m 29,0 km/h (5 Bft) 100,00 %
12.02.2020 11:30 6,1 C 8,3 C 6,1 C 79 % 1014,2 hPa 0,0 l/m 2 min 0 min 407 W/m 38,6 km/h (5 Bft) 100,00 %
12.02.2020 11:32 6,2 C 8,3 C 6,7 C 79 % 1014,2 hPa 0,0 l/m 2 min 0 min 406 W/m 35,4 km/h (5 Bft) 100,00 %
12.02.2020 11:34 6,3 C 9,4 C 7,2 C 79 % 1014,3 hPa 0,0 l/m 2 min 0 min 428 W/m 22,5 km/h (4 Bft) 100,00 %
12.02.2020 11:36 6,5 C 10,0 C 7,2 C 79 % 1014,3 hPa 0,0 l/m 2 min 0 min 493 W/m 29,0 km/h (5 Bft) 100,00 %
12.02.2020 11:38 6,6 C 8,9 C 7,2 C 79 % 1014,3 hPa 0,0 l/m 2 min 0 min 329 W/m 19,3 km/h (3 Bft) 100,00 %
12.02.2020 11:40 6,7 C 8,9 C 7,2 C 78 % 1014,2 hPa 0,0 l/m 2 min 0 min 258 W/m 29,0 km/h (5 Bft) 97,92 %
12.02.2020 11:42 6,8 C 8,3 C 6,7 C 78 % 1014,4 hPa 0,0 l/m 2 min 0 min 239 W/m 12,9 km/h (3 Bft) 97,92 %
12.02.2020 11:44 6,8 C 7,8 C 6,7 C 78 % 1014,4 hPa 0,0 l/m 0 min 0 min 189 W/m 25,7 km/h (4 Bft) 97,87 %
12.02.2020 11:46 6,8 C 7,8 C 6,7 C 77 % 1014,4 hPa 0,0 l/m 2 min 0 min 258 W/m 22,5 km/h (4 Bft) 97,92 %
12.02.2020 11:48 6,8 C 7,8 C 6,7 C 77 % 1014,4 hPa 0,0 l/m 2 min 0 min 254 W/m 35,4 km/h (5 Bft) 97,87 %
12.02.2020 11:50 6,8 C 7,2 C 6,7 C 76 % 1014,3 hPa 0,0 l/m 2 min 0 min 258 W/m 38,6 km/h (5 Bft) 95,74 %
12.02.2020 11:52 6,8 C 7,2 C 6,7 C 76 % 1014,4 hPa 0,0 l/m 0 min 0 min 196 W/m 19,3 km/h (3 Bft) 97,83 %
12.02.2020 11:54 6,8 C 7,8 C 6,7 C 76 % 1014,4 hPa 0,0 l/m 2 min 0 min 219 W/m 29,0 km/h (5 Bft) 97,87 %
12.02.2020 11:56 6,8 C 7,8 C 6,7 C 76 % 1014,5 hPa 0,0 l/m 2 min 0 min 253 W/m 25,7 km/h (4 Bft) 97,87 %
12.02.2020 11:58 6,8 C 7,8 C 6,7 C 76 % 1014,5 hPa 0,0 l/m 0 min 0 min 202 W/m 16,1 km/h (3 Bft) 97,62 %
12.02.2020 12:00 6,8 C 7,2 C 6,7 C 76 % 1014,5 hPa 0,0 l/m 2 min 0 min 230 W/m 16,1 km/h (3 Bft) 97,87 %
12.02.2020 12:02 6,8 C 7,2 C 6,7 C 76 % 1014,5 hPa 0,0 l/m 2 min 0 min 249 W/m 25,7 km/h (4 Bft) 97,87 %
12.02.2020 12:04 6,8 C 7,2 C 6,7 C 75 % 1014,5 hPa 0,0 l/m 2 min 0 min 216 W/m 19,3 km/h (3 Bft) 94,12 %
12.02.2020 12:06 6,8 C 7,2 C 6,7 C 76 % 1014,5 hPa 0,0 l/m 0 min 0 min 200 W/m 29,0 km/h (5 Bft) 95,74 %
12.02.2020 12:08 6,8 C 7,2 C 6,7 C 75 % 1014,5 hPa 0,0 l/m 2 min 0 min 216 W/m 29,0 km/h (5 Bft) 97,87 %
12.02.2020 12:10 6,8 C 7,2 C 6,7 C 75 % 1014,5 hPa 0,0 l/m 0 min 0 min 206 W/m 32,2 km/h (5 Bft) 97,87 %
12.02.2020 12:12 6,8 C 7,8 C 6,7 C 75 % 1014,5 hPa 0,0 l/m 2 min 0 min 278 W/m 22,5 km/h (4 Bft) 97,87 %
12.02.2020 12:14 6,8 C 7,8 C 6,7 C 75 % 1014,5 hPa 0,0 l/m 2 min 0 min 314 W/m 32,2 km/h (5 Bft) 93,48 %
12.02.2020 12:16 6,8 C 7,2 C 6,7 C 75 % 1014,6 hPa 0,0 l/m 0 min 0 min 202 W/m 22,5 km/h (4 Bft) 95,74 %
12.02.2020 12:18 6,8 C 7,2 C 6,7 C 75 % 1014,5 hPa 0,0 l/m 0 min 0 min 180 W/m 22,5 km/h (4 Bft) 97,87 %
12.02.2020 12:20 6,8 C 7,8 C 6,7 C 75 % 1014,5 hPa 0,0 l/m 2 min 0 min 222 W/m 25,7 km/h (4 Bft) 97,87 %
12.02.2020 12:22 6,8 C 7,2 C 6,7 C 75 % 1014,6 hPa 0,0 l/m 0 min 0 min 201 W/m 29,0 km/h (5 Bft) 97,87 %
12.02.2020 12:24 6,8 C 7,8 C 6,7 C 75 % 1014,5 hPa 0,0 l/m 0 min 0 min 208 W/m 19,3 km/h (3 Bft) 97,87 %
12.02.2020 12:26 6,9 C 7,8 C 6,7 C 75 % 1014,5 hPa 0,0 l/m 2 min 0 min 235 W/m 22,5 km/h (4 Bft) 95,12 %
12.02.2020 12:28 6,9 C 7,8 C 6,7 C 74 % 1014,4 hPa 0,0 l/m 2 min 0 min 239 W/m 19,3 km/h (3 Bft) 100,00 %
12.02.2020 12:30 6,9 C 8,3 C 7,2 C 74 % 1014,5 hPa 0,0 l/m 2 min 0 min 255 W/m 19,3 km/h (3 Bft) 100,00 %
12.02.2020 12:32 7,0 C 8,9 C 7,2 C 74 % 1014,5 hPa 0,0 l/m 2 min 0 min 297 W/m 22,5 km/h (4 Bft) 100,00 %
12.02.2020 12:34 7,1 C 9,4 C 7,8 C 74 % 1014,5 hPa 0,0 l/m 2 min 0 min 400 W/m 19,3 km/h (3 Bft) 100,00 %
12.02.2020 12:36 7,2 C 9,4 C 7,8 C 74 % 1014,5 hPa 0,0 l/m 2 min 0 min 442 W/m 19,3 km/h (3 Bft) 100,00 %
12.02.2020 12:38 7,2 C 9,4 C 8,3 C 73 % 1014,5 hPa 0,0 l/m 2 min 0 min 251 W/m 19,3 km/h (3 Bft) 97,87 %
12.02.2020 12:40 7,3 C 10,0 C 8,9 C 73 % 1014,5 hPa 0,0 l/m 2 min 0 min 319 W/m 22,5 km/h (4 Bft) 97,87 %
12.02.2020 12:42 7,4 C 10,6 C 10,0 C 72 % 1014,5 hPa 0,0 l/m 2 min 0 min 579 W/m 25,7 km/h (4 Bft) 97,83 %
12.02.2020 12:44 7,5 C 10,6 C 9,4 C 72 % 1014,5 hPa 0,0 l/m 2 min 0 min 563 W/m 25,7 km/h (4 Bft) 97,92 %
12.02.2020 12:46 7,6 C 10,0 C 8,9 C 72 % 1014,5 hPa 0,0 l/m 2 min 0 min 396 W/m 22,5 km/h (4 Bft) 97,92 %
12.02.2020 12:48 7,6 C 10,6 C 9,4 C 71 % 1014,5 hPa 0,0 l/m 2 min 0 min 255 W/m 25,7 km/h (4 Bft) 77,08 %
12.02.2020 12:50 7,7 C 10,6 C 10,0 C 71 % 1014,5 hPa 0,0 l/m 2 min 0 min 377 W/m 25,7 km/h (4 Bft) 74,47 %
12.02.2020 12:52 7,8 C 11,7 C 10,6 C 71 % 1014,4 hPa 0,0 l/m 2 min 0 min 589 W/m 25,7 km/h (4 Bft) 97,87 %
12.02.2020 12:54 7,9 C 12,2 C 11,7 C 71 % 1014,4 hPa 0,0 l/m 2 min 0 min 565 W/m 22,5 km/h (4 Bft) 97,87 %
12.02.2020 12:56 8,0 C 10,0 C 9,4 C 70 % 1014,5 hPa 0,0 l/m 2 min 0 min 461 W/m 29,0 km/h (5 Bft) 95,74 %
12.02.2020 12:58 8,1 C 10,0 C 9,4 C 69 % 1014,4 hPa 0,0 l/m 0 min 0 min 210 W/m 22,5 km/h (4 Bft) 97,56 %
12.02.2020 13:00 8,1 C 10,6 C 10,0 C 68 % 1014,5 hPa 0,0 l/m 2 min 0 min 496 W/m 35,4 km/h (5 Bft) 97,87 %
12.02.2020 13:02 8,1 C 11,1 C 9,4 C 68 % 1014,4 hPa 0,0 l/m 2 min 0 min 436 W/m 29,0 km/h (5 Bft) 97,87 %
12.02.2020 13:04 8,1 C 8,9 C 8,3 C 68 % 1014,5 hPa 0,0 l/m 0 min 0 min 180 W/m 22,5 km/h (4 Bft) 100,00 %
12.02.2020 13:06 8,1 C 9,4 C 9,4 C 68 % 1014,4 hPa 0,0 l/m 0 min 0 min 174 W/m 35,4 km/h (5 Bft) 95,83 %
12.02.2020 13:08 8,1 C 10,0 C 9,4 C 67 % 1014,4 hPa 0,0 l/m 2 min 0 min 309 W/m 19,3 km/h (3 Bft) 97,87 %
12.02.2020 13:10 8,0 C 8,9 C 8,3 C 68 % 1014,4 hPa 0,0 l/m 2 min 0 min 448 W/m 22,5 km/h (4 Bft) 97,92 %
12.02.2020 13:12 8,0 C 11,1 C 8,9 C 68 % 1014,5 hPa 0,0 l/m 2 min 0 min 279 W/m 19,3 km/h (3 Bft) 97,92 %
12.02.2020 13:14 8,1 C 10,0 C 8,3 C 69 % 1014,5 hPa 0,0 l/m 2 min 0 min 564 W/m 25,7 km/h (4 Bft) 100,00 %
12.02.2020 13:16 8,0 C 9,4 C 7,8 C 67 % 1014,4 hPa 0,0 l/m 2 min 0 min 308 W/m 25,7 km/h (4 Bft) 95,74 %
12.02.2020 13:18 8,1 C 10,6 C 7,8 C 68 % 1014,4 hPa 0,0 l/m 2 min 0 min 436 W/m 22,5 km/h (4 Bft) 100,00 %
12.02.2020 13:20 8,0 C 10,6 C 7,8 C 67 % 1014,4 hPa 0,0 l/m 2 min 0 min 545 W/m 35,4 km/h (5 Bft) 100,00 %
12.02.2020 13:22 8,1 C 11,7 C 7,8 C 67 % 1014,3 hPa 0,0 l/m 2 min 0 min 566 W/m 29,0 km/h (5 Bft) 100,00 %
12.02.2020 13:24 8,1 C 11,7 C 7,8 C 67 % 1014,4 hPa 0,0 l/m 2 min 0 min 556 W/m 25,7 km/h (4 Bft) 97,83 %
12.02.2020 13:26 8,2 C 11,1 C 7,8 C 66 % 1014,5 hPa 0,0 l/m 2 min 0 min 402 W/m 22,5 km/h (4 Bft) 97,87 %
12.02.2020 13:28 8,2 C 10,0 C 7,8 C 67 % 1014,5 hPa 0,0 l/m 0 min 0 min 207 W/m 38,6 km/h (5 Bft) 100,00 %
12.02.2020 13:30 8,2 C 10,6 C 7,8 C 67 % 1014,4 hPa 0,0 l/m 2 min 0 min 211 W/m 12,9 km/h (3 Bft) 100,00 %
12.02.2020 13:32 8,2 C 10,0 C 7,8 C 66 % 1014,5 hPa 0,0 l/m 2 min 0 min 249 W/m 22,5 km/h (4 Bft) 97,87 %
12.02.2020 13:34 8,2 C 11,1 C 7,8 C 66 % 1014,5 hPa 0,0 l/m 0 min 0 min 193 W/m 19,3 km/h (3 Bft) 97,87 %
12.02.2020 13:36 8,3 C 9,4 C 7,8 C 66 % 1014,5 hPa 0,0 l/m 0 min 0 min 188 W/m 19,3 km/h (3 Bft) 97,83 %
12.02.2020 13:38 8,2 C 10,0 C 7,8 C 66 % 1014,4 hPa 0,0 l/m 0 min 0 min 178 W/m 25,7 km/h (4 Bft) 100,00 %
12.02.2020 13:40 8,3 C 11,1 C 7,8 C 66 % 1014,5 hPa 0,0 l/m 2 min 0 min 384 W/m 35,4 km/h (5 Bft) 100,00 %
12.02.2020 13:42 8,3 C 9,4 C 7,8 C 65 % 1014,5 hPa 0,0 l/m 2 min 0 min 353 W/m 25,7 km/h (4 Bft) 100,00 %
12.02.2020 13:44 8,2 C 8,3 C 7,2 C 65 % 1014,5 hPa 0,0 l/m 0 min 0 min 163 W/m 19,3 km/h (3 Bft) 97,87 %
12.02.2020 13:46 8,2 C 7,8 C 7,2 C 65 % 1014,5 hPa 0,0 l/m 0 min 0 min 168 W/m 22,5 km/h (4 Bft) 97,56 %
12.02.2020 13:48 8,1 C 7,8 C 7,2 C 65 % 1014,5 hPa 0,0 l/m 0 min 0 min 155 W/m 22,5 km/h (4 Bft) 97,92 %
12.02.2020 13:50 8,0 C 7,8 C 7,2 C 66 % 1014,5 hPa 0,0 l/m 0 min 0 min 160 W/m 22,5 km/h (4 Bft) 97,92 %
12.02.2020 13:52 7,9 C 7,2 C 7,2 C 66 % 1014,5 hPa 0,0 l/m 0 min 0 min 146 W/m 22,5 km/h (4 Bft) 95,74 %
12.02.2020 13:54 7,8 C 7,2 C 6,7 C 67 % 1014,6 hPa 0,0 l/m 0 min 0 min 107 W/m 19,3 km/h (3 Bft) 95,74 %
12.02.2020 13:56 7,8 C 7,2 C 6,7 C 67 % 1014,6 hPa 0,0 l/m 0 min 0 min 127 W/m 29,0 km/h (5 Bft) 97,92 %
12.02.2020 13:58 7,7 C 7,2 C 6,7 C 67 % 1014,6 hPa 0,0 l/m 0 min 0 min 131 W/m 29,0 km/h (5 Bft) 97,92 %
12.02.2020 14:00 7,7 C 7,2 C 6,7 C 67 % 1014,6 hPa 0,0 l/m 0 min 0 min 117 W/m 16,1 km/h (3 Bft) 97,87 %
12.02.2020 14:02 7,6 C 7,8 C 6,7 C 67 % 1014,6 hPa 0,0 l/m 0 min 0 min 147 W/m 22,5 km/h (4 Bft) 95,74 %
12.02.2020 14:04 7,6 C 8,9 C 6,7 C 67 % 1014,6 hPa 0,0 l/m 0 min 0 min 151 W/m 22,5 km/h (4 Bft) 97,87 %
12.02.2020 14:06 7,6 C 8,3 C 6,7 C 68 % 1014,5 hPa 0,0 l/m 0 min 0 min 140 W/m 19,3 km/h (3 Bft) 97,87 %
12.02.2020 14:08 7,6 C 8,3 C 6,7 C 68 % 1014,6 hPa 0,0 l/m 0 min 0 min 142 W/m 25,7 km/h (4 Bft) 97,87 %
12.02.2020 14:10 7,6 C 9,4 C 7,2 C 68 % 1014,6 hPa 0,0 l/m 0 min 0 min 142 W/m 19,3 km/h (3 Bft) 95,65 %
12.02.2020 14:12 7,7 C 10,6 C 7,2 C 68 % 1014,6 hPa 0,0 l/m 0 min 0 min 142 W/m 19,3 km/h (3 Bft) 97,87 %
12.02.2020 14:14 7,8 C 12,8 C 7,8 C 69 % 1014,6 hPa 0,0 l/m 2 min 0 min 460 W/m 22,5 km/h (4 Bft) 97,87 %
12.02.2020 14:16 7,9 C 13,3 C 7,8 C 69 % 1014,6 hPa 0,0 l/m 2 min 0 min 494 W/m 22,5 km/h (4 Bft) 97,87 %
12.02.2020 14:18 8,1 C 12,8 C 7,8 C 68 % 1014,6 hPa 0,0 l/m 2 min 0 min 494 W/m 19,3 km/h (3 Bft) 97,87 %
12.02.2020 14:20 8,2 C 11,7 C 7,8 C 68 % 1014,5 hPa 0,0 l/m 2 min 0 min 295 W/m 19,3 km/h (3 Bft) 97,56 %
12.02.2020 14:22 8,3 C 12,2 C 7,8 C 67 % 1014,5 hPa 0,0 l/m 2 min 0 min 244 W/m 19,3 km/h (3 Bft) 95,83 %
12.02.2020 14:24 8,4 C 12,8 C 8,3 C 68 % 1014,5 hPa 0,0 l/m 2 min 0 min 482 W/m 19,3 km/h (3 Bft) 93,62 %
12.02.2020 14:26 8,5 C 11,7 C 8,3 C 67 % 1014,5 hPa 0,0 l/m 2 min 0 min 440 W/m 25,7 km/h (4 Bft) 95,83 %
12.02.2020 14:28 8,5 C 9,4 C 7,8 C 65 % 1014,5 hPa 0,0 l/m 2 min 0 min 189 W/m 41,8 km/h (6 Bft) 95,74 %
12.02.2020 14:30 8,5 C 8,3 C 7,8 C 65 % 1014,4 hPa 0,0 l/m 2 min 0 min 184 W/m 19,3 km/h (3 Bft) 95,83 %
12.02.2020 14:32 8,4 C 9,4 C 7,8 C 65 % 1014,5 hPa 0,0 l/m 0 min 0 min 179 W/m 12,9 km/h (3 Bft) 93,75 %
12.02.2020 14:34 8,4 C 8,9 C 7,8 C 65 % 1014,4 hPa 0,0 l/m 0 min 0 min 176 W/m 22,5 km/h (4 Bft) 95,74 %
12.02.2020 14:36 8,4 C 9,4 C 7,8 C 65 % 1014,5 hPa 0,0 l/m 0 min 0 min 169 W/m 25,7 km/h (4 Bft) 95,74 %
12.02.2020 14:38 8,3 C 9,4 C 7,2 C 65 % 1014,5 hPa 0,0 l/m 2 min 0 min 178 W/m 22,5 km/h (4 Bft) 95,74 %
12.02.2020 14:40 8,3 C 9,4 C 7,8 C 65 % 1014,5 hPa 0,0 l/m 2 min 0 min 220 W/m 25,7 km/h (4 Bft) 95,65 %
12.02.2020 14:42 8,3 C 10,6 C 7,8 C 65 % 1014,6 hPa 0,0 l/m 2 min 0 min 211 W/m 25,7 km/h (4 Bft) 93,75 %
12.02.2020 14:44 8,4 C 11,1 C 7,8 C 66 % 1014,6 hPa 0,0 l/m 2 min 0 min 288 W/m 19,3 km/h (3 Bft) 95,74 %
12.02.2020 14:46 8,4 C 11,1 C 7,8 C 65 % 1014,5 hPa 0,0 l/m 2 min 0 min 414 W/m 35,4 km/h (5 Bft) 95,65 %
12.02.2020 14:48 8,4 C 10,0 C 7,8 C 64 % 1014,4 hPa 0,0 l/m 2 min 0 min 432 W/m 35,4 km/h (5 Bft) 95,74 %
12.02.2020 14:50 8,4 C 10,0 C 7,2 C 63 % 1014,4 hPa 0,0 l/m 2 min 0 min 421 W/m 35,4 km/h (5 Bft) 95,74 %
12.02.2020 14:52 8,4 C 10,6 C 7,2 C 64 % 1014,6 hPa 0,0 l/m 2 min 0 min 385 W/m 25,7 km/h (4 Bft) 93,62 %
12.02.2020 14:54 8,4 C 11,1 C 7,8 C 65 % 1014,6 hPa 0,0 l/m 2 min 0 min 388 W/m 19,3 km/h (3 Bft) 97,87 %
12.02.2020 14:56 8,4 C 10,6 C 7,2 C 64 % 1014,7 hPa 0,0 l/m 2 min 0 min 374 W/m 32,2 km/h (5 Bft) 97,87 %
12.02.2020 14:58 8,4 C 10,6 C 7,2 C 65 % 1014,6 hPa 0,0 l/m 2 min 0 min 365 W/m 25,7 km/h (4 Bft) 97,83 %
12.02.2020 15:00 8,3 C 10,6 C 7,2 C 65 % 1014,6 hPa 0,0 l/m 2 min 0 min 352 W/m 19,3 km/h (3 Bft) 95,74 %
12.02.2020 15:02 8,3 C 11,1 C 7,2 C 66 % 1014,6 hPa 0,0 l/m 2 min 0 min 343 W/m 25,7 km/h (4 Bft) 95,74 %
12.02.2020 15:04 8,3 C 11,7 C 7,2 C 67 % 1014,6 hPa 0,0 l/m 2 min 0 min 334 W/m 19,3 km/h (3 Bft) 95,74 %
12.02.2020 15:06 8,3 C 11,7 C 7,2 C 67 % 1014,6 hPa 0,0 l/m 2 min 0 min 328 W/m 22,5 km/h (4 Bft) 97,83 %
12.02.2020 15:08 8,3 C 11,1 C 7,2 C 67 % 1014,7 hPa 0,0 l/m 2 min 0 min 324 W/m 16,1 km/h (3 Bft) 97,83 %
12.02.2020 15:10 8,3 C 10,6 C 7,2 C 67 % 1014,7 hPa 0,0 l/m 2 min 0 min 325 W/m 35,4 km/h (5 Bft) 97,87 %
12.02.2020 15:12 8,3 C 11,1 C 6,7 C 67 % 1014,7 hPa 0,0 l/m 2 min 0 min 318 W/m 16,1 km/h (3 Bft) 97,62 %
12.02.2020 15:14 8,3 C 11,1 C 6,7 C 67 % 1014,7 hPa 0,0 l/m 2 min 0 min 318 W/m 22,5 km/h (4 Bft) 95,83 %
12.02.2020 15:16 8,3 C 10,6 C 6,7 C 67 % 1014,7 hPa 0,0 l/m 2 min 0 min 312 W/m 22,5 km/h (4 Bft) 97,83 %
12.02.2020 15:18 8,2 C 10,6 C 6,7 C 67 % 1014,7 hPa 0,0 l/m 2 min 0 min 307 W/m 25,7 km/h (4 Bft) 97,92 %
12.02.2020 15:20 8,2 C 10,0 C 6,7 C 67 % 1014,7 hPa 0,0 l/m 2 min 0 min 304 W/m 19,3 km/h (3 Bft) 97,87 %
12.02.2020 15:22 8,2 C 10,6 C 6,7 C 67 % 1014,7 hPa 0,0 l/m 2 min 0 min 298 W/m 19,3 km/h (3 Bft) 97,87 %
12.02.2020 15:24 8,2 C 10,6 C 6,7 C 67 % 1014,6 hPa 0,0 l/m 2 min 0 min 293 W/m 19,3 km/h (3 Bft) 95,74 %
12.02.2020 15:26 8,2 C 10,6 C 6,7 C 68 % 1014,6 hPa 0,0 l/m 2 min 0 min 286 W/m 22,5 km/h (4 Bft) 93,48 %
12.02.2020 15:28 8,2 C 10,6 C 6,7 C 67 % 1014,6 hPa 0,0 l/m 2 min 0 min 284 W/m 25,7 km/h (4 Bft) 97,87 %
12.02.2020 15:30 8,2 C 10,0 C 6,7 C 66 % 1014,6 hPa 0,0 l/m 2 min 0 min 281 W/m 35,4 km/h (5 Bft) 97,87 %
12.02.2020 15:32 8,2 C 10,0 C 6,7 C 66 % 1014,5 hPa 0,0 l/m 2 min 0 min 275 W/m 19,3 km/h (3 Bft) 97,87 %
12.02.2020 15:34 8,1 C 8,9 C 6,7 C 66 % 1014,6 hPa 0,0 l/m 2 min 0 min 219 W/m 22,5 km/h (4 Bft) 97,87 %
12.02.2020 15:36 8,1 C 7,8 C 6,7 C 66 % 1014,6 hPa 0,0 l/m 0 min 0 min 83 W/m 32,2 km/h (5 Bft) 97,92 %
12.02.2020 15:38 8,0 C 7,2 C 6,7 C 65 % 1014,6 hPa 0,0 l/m 0 min 0 min 96 W/m 25,7 km/h (4 Bft) 100,00 %
12.02.2020 15:40 7,9 C 7,8 C 6,7 C 65 % 1014,5 hPa 0,0 l/m 2 min 0 min 138 W/m 25,7 km/h (4 Bft) 100,00 %
12.02.2020 15:42 7,9 C 8,9 C 6,7 C 66 % 1014,6 hPa 0,0 l/m 2 min 0 min 262 W/m 29,0 km/h (5 Bft) 97,87 %
12.02.2020 15:44 7,9 C 10,0 C 6,7 C 67 % 1014,6 hPa 0,0 l/m 2 min 0 min 302 W/m 25,7 km/h (4 Bft) 100,00 %
12.02.2020 15:46 7,9 C 10,0 C 7,2 C 67 % 1014,6 hPa 0,0 l/m 2 min 0 min 308 W/m 25,7 km/h (4 Bft) 97,87 %
12.02.2020 15:48 7,9 C 9,4 C 7,2 C 66 % 1014,6 hPa 0,0 l/m 2 min 2 min 219 W/m 32,2 km/h (5 Bft) 100,00 %
12.02.2020 15:50 7,9 C 8,9 C 6,7 C 67 % 1014,6 hPa 0,0 l/m 2 min 2 min 290 W/m 25,7 km/h (4 Bft) 97,87 %
12.02.2020 15:52 7,9 C 8,9 C 6,7 C 68 % 1014,6 hPa 0,0 l/m 2 min 2 min 269 W/m 25,7 km/h (4 Bft) 100,00 %
12.02.2020 15:54 7,9 C 9,4 C 6,7 C 68 % 1014,6 hPa 0,0 l/m 2 min 0 min 231 W/m 16,1 km/h (3 Bft) 97,87 %
12.02.2020 15:56 7,9 C 9,4 C 6,7 C 68 % 1014,6 hPa 0,0 l/m 2 min 0 min 223 W/m 22,5 km/h (4 Bft) 100,00 %
12.02.2020 15:58 7,9 C 10,0 C 6,7 C 68 % 1014,6 hPa 0,0 l/m 2 min 0 min 218 W/m 16,1 km/h (3 Bft) 100,00 %
12.02.2020 16:00 7,9 C 9,4 C 6,7 C 67 % 1014,6 hPa 0,0 l/m 2 min 0 min 217 W/m 22,5 km/h (4 Bft) 97,87 %
12.02.2020 16:02 7,9 C 9,4 C 6,7 C 67 % 1014,7 hPa 0,0 l/m 2 min 0 min 227 W/m 32,2 km/h (5 Bft) 98,00 %
12.02.2020 16:04 7,9 C 9,4 C 6,7 C 67 % 1014,7 hPa 0,0 l/m 2 min 0 min 253 W/m 22,5 km/h (4 Bft) 100,00 %
12.02.2020 16:06 7,9 C 10,0 C 6,7 C 67 % 1014,7 hPa 0,0 l/m 2 min 0 min 292 W/m 12,9 km/h (3 Bft) 100,00 %
12.02.2020 16:08 7,9 C 10,6 C 7,2 C 68 % 1014,7 hPa 0,0 l/m 2 min 2 min 214 W/m 22,5 km/h (4 Bft) 100,00 %
12.02.2020 16:10 7,9 C 10,0 C 6,7 C 69 % 1014,7 hPa 0,0 l/m 2 min 2 min 209 W/m 19,3 km/h (3 Bft) 100,00 %
12.02.2020 16:12 7,9 C 9,4 C 6,7 C 69 % 1014,8 hPa 0,0 l/m 2 min 2 min 242 W/m 12,9 km/h (3 Bft) 100,00 %
12.02.2020 16:14 7,9 C 8,9 C 6,7 C 69 % 1014,8 hPa 0,0 l/m 2 min 0 min 233 W/m 12,9 km/h (3 Bft) 97,87 %
12.02.2020 16:16 7,9 C 8,3 C 6,7 C 69 % 1014,8 hPa 0,0 l/m 2 min 0 min 228 W/m 22,5 km/h (4 Bft) 100,00 %
12.02.2020 16:18 7,9 C 7,8 C 6,7 C 67 % 1014,7 hPa 0,0 l/m 2 min 0 min 128 W/m 22,5 km/h (4 Bft) 100,00 %
12.02.2020 16:20 7,8 C 7,2 C 6,7 C 67 % 1014,8 hPa 0,0 l/m 0 min 0 min 63 W/m 29,0 km/h (5 Bft) 100,00 %
12.02.2020 16:22 7,8 C 7,2 C 6,7 C 67 % 1014,8 hPa 0,0 l/m 0 min 0 min 52 W/m 25,7 km/h (4 Bft) 100,00 %
12.02.2020 16:24 7,8 C 7,2 C 6,1 C 66 % 1014,8 hPa 0,0 l/m 0 min 0 min 49 W/m 38,6 km/h (5 Bft) 100,00 %
12.02.2020 16:26 7,7 C 6,7 C 6,1 C 66 % 1014,8 hPa 0,0 l/m 0 min 0 min 50 W/m 25,7 km/h (4 Bft) 100,00 %
12.02.2020 16:28 7,7 C 6,7 C 6,1 C 66 % 1014,8 hPa 0,0 l/m 0 min 0 min 53 W/m 19,3 km/h (3 Bft) 100,00 %
12.02.2020 16:30 7,6 C 6,7 C 6,1 C 66 % 1014,9 hPa 0,0 l/m 0 min 0 min 62 W/m 12,9 km/h (3 Bft) 100,00 %
12.02.2020 16:32 7,6 C 7,2 C 6,1 C 67 % 1014,9 hPa 0,0 l/m 2 min 0 min 81 W/m 16,1 km/h (3 Bft) 100,00 %
12.02.2020 16:34 7,6 C 7,2 C 6,7 C 68 % 1014,9 hPa 0,0 l/m 2 min 0 min 102 W/m 16,1 km/h (3 Bft) 100,00 %
12.02.2020 16:36 7,5 C 7,2 C 6,7 C 68 % 1014,9 hPa 0,0 l/m 2 min 0 min 91 W/m 19,3 km/h (3 Bft) 100,00 %
12.02.2020 16:38 7,5 C 7,2 C 6,7 C 68 % 1014,9 hPa 0,0 l/m 2 min 0 min 87 W/m 19,3 km/h (3 Bft) 100,00 %
12.02.2020 16:40 7,5 C 7,2 C 6,1 C 68 % 1015,0 hPa 0,0 l/m 2 min 0 min 71 W/m 19,3 km/h (3 Bft) 97,87 %
12.02.2020 16:42 7,4 C 6,7 C 6,1 C 67 % 1014,9 hPa 0,0 l/m 0 min 0 min 39 W/m 16,1 km/h (3 Bft) 97,87 %
12.02.2020 16:44 7,4 C 6,7 C 6,1 C 67 % 1015,0 hPa 0,0 l/m 0 min 0 min 30 W/m 12,9 km/h (3 Bft) 97,87 %
12.02.2020 16:46 7,4 C 6,7 C 6,1 C 67 % 1015,0 hPa 0,0 l/m 0 min 0 min 28 W/m 22,5 km/h (4 Bft) 97,87 %
12.02.2020 16:48 7,3 C 6,1 C 5,6 C 67 % 1015,1 hPa 0,0 l/m 0 min 0 min 30 W/m 19,3 km/h (3 Bft) 97,87 %
12.02.2020 16:50 7,3 C 6,7 C 5,6 C 67 % 1015,1 hPa 0,0 l/m 0 min 0 min 39 W/m 16,1 km/h (3 Bft) 97,87 %
12.02.2020 16:52 7,2 C 6,7 C 5,6 C 67 % 1015,1 hPa 0,0 l/m 2 min 0 min 58 W/m 19,3 km/h (3 Bft) 97,87 %
12.02.2020 16:54 7,2 C 6,7 C 6,1 C 68 % 1015,2 hPa 0,0 l/m 2 min 0 min 71 W/m 16,1 km/h (3 Bft) 97,83 %
12.02.2020 16:56 7,2 C 6,7 C 6,1 C 68 % 1015,2 hPa 0,0 l/m 2 min 0 min 60 W/m 12,9 km/h (3 Bft) 97,87 %
12.02.2020 16:58 7,1 C 6,1 C 5,6 C 69 % 1015,2 hPa 0,0 l/m 0 min 0 min 36 W/m 12,9 km/h (3 Bft) 97,62 %
12.02.2020 17:00 7,1 C 6,1 C 5,6 C 69 % 1015,2 hPa 0,0 l/m 0 min 0 min 32 W/m 9,7 km/h (2 Bft) 95,83 %
12.02.2020 17:02 7,1 C 6,1 C 5,6 C 69 % 1015,2 hPa 0,0 l/m 0 min 0 min 36 W/m 29,0 km/h (5 Bft) 98,00 %
12.02.2020 17:04 7,1 C 6,1 C 5,6 C 69 % 1015,2 hPa 0,0 l/m 0 min 0 min 34 W/m 19,3 km/h (3 Bft) 97,87 %
12.02.2020 17:06 7,0 C 6,1 C 5,6 C 69 % 1015,2 hPa 0,0 l/m 0 min 0 min 29 W/m 12,9 km/h (3 Bft) 95,74 %
12.02.2020 17:08 7,0 C 6,1 C 5,6 C 69 % 1015,3 hPa 0,0 l/m 0 min 0 min 27 W/m 25,7 km/h (4 Bft) 95,74 %
12.02.2020 17:10 6,9 C 6,1 C 5,6 C 70 % 1015,3 hPa 0,0 l/m 0 min 0 min 23 W/m 19,3 km/h (3 Bft) 97,83 %
12.02.2020 17:12 6,9 C 6,1 C 5,6 C 70 % 1015,3 hPa 0,0 l/m 0 min 0 min 19 W/m 16,1 km/h (3 Bft) 97,92 %
12.02.2020 17:14 6,9 C 6,1 C 5,6 C 70 % 1015,4 hPa 0,0 l/m 0 min 0 min 15 W/m 16,1 km/h (3 Bft) 97,87 %
12.02.2020 17:16 6,9 C 6,1 C 5,6 C 70 % 1015,4 hPa 0,0 l/m 0 min 0 min 14 W/m 19,3 km/h (3 Bft) 95,65 %
12.02.2020 17:18 6,9 C 6,1 C 5,6 C 70 % 1015,4 hPa 0,0 l/m 0 min 0 min 14 W/m 12,9 km/h (3 Bft) 95,74 %
12.02.2020 17:20 6,9 C 6,1 C 5,6 C 70 % 1015,4 hPa 0,0 l/m 0 min 0 min 14 W/m 16,1 km/h (3 Bft) 93,62 %
12.02.2020 17:22 6,8 C 6,1 C 5,6 C 71 % 1015,4 hPa 0,0 l/m 0 min 0 min 16 W/m 9,7 km/h (2 Bft) 91,49 %
12.02.2020 17:24 6,8 C 6,1 C 5,6 C 71 % 1015,5 hPa 0,0 l/m 2 min 0 min 21 W/m 9,7 km/h (2 Bft) 95,74 %
12.02.2020 17:26 6,8 C 6,1 C 5,6 C 71 % 1015,5 hPa 0,0 l/m 2 min 0 min 20 W/m 12,9 km/h (3 Bft) 91,49 %
12.02.2020 17:28 6,8 C 6,1 C 5,6 C 71 % 1015,6 hPa 0,0 l/m 0 min 0 min 16 W/m 9,7 km/h (2 Bft) 92,68 %
12.02.2020 17:30 6,7 C 6,1 C 5,6 C 71 % 1015,6 hPa 0,0 l/m 0 min 0 min 15 W/m 16,1 km/h (3 Bft) 93,75 %
12.02.2020 17:32 6,7 C 6,1 C 5,6 C 71 % 1015,5 hPa 0,0 l/m 0 min 0 min 12 W/m 6,4 km/h (2 Bft) 93,75 %
12.02.2020 17:34 6,7 C 5,6 C 5,6 C 71 % 1015,6 hPa 0,0 l/m 0 min 0 min 8 W/m 9,7 km/h (2 Bft) 93,48 %
12.02.2020 17:36 6,7 C 5,6 C 5,0 C 72 % 1015,7 hPa 0,0 l/m 0 min 0 min 6 W/m 12,9 km/h (3 Bft) 93,75 %
12.02.2020 17:38 6,7 C 5,6 C 5,0 C 72 % 1015,7 hPa 0,0 l/m 0 min 0 min 5 W/m 12,9 km/h (3 Bft) 93,75 %
12.02.2020 17:40 6,6 C 5,6 C 5,0 C 73 % 1015,8 hPa 0,0 l/m 0 min 0 min 2 W/m 16,1 km/h (3 Bft) 91,67 %
12.02.2020 17:42 6,6 C 5,6 C 5,0 C 72 % 1015,8 hPa 0,0 l/m 0 min 0 min 0 W/m 19,3 km/h (3 Bft) 91,49 %
12.02.2020 17:44 6,5 C 5,6 C 5,0 C 72 % 1015,8 hPa 0,0 l/m 0 min 0 min 0 W/m 22,5 km/h (4 Bft) 95,74 %
12.02.2020 17:46 6,5 C 5,6 C 5,0 C 71 % 1015,9 hPa 0,0 l/m 0 min 0 min 0 W/m 16,1 km/h (3 Bft) 95,74 %
12.02.2020 17:48 6,5 C 5,6 C 5,0 C 71 % 1015,9 hPa 0,0 l/m 0 min 0 min 0 W/m 12,9 km/h (3 Bft) 95,74 %
12.02.2020 17:50 6,4 C 5,0 C 5,0 C 71 % 1016,0 hPa 0,0 l/m 0 min 0 min 0 W/m 19,3 km/h (3 Bft) 91,49 %
12.02.2020 17:52 6,4 C 5,0 C 4,4 C 71 % 1016,1 hPa 0,0 l/m 0 min 0 min 0 W/m 16,1 km/h (3 Bft) 95,65 %
12.02.2020 17:54 6,3 C 5,0 C 4,4 C 71 % 1016,0 hPa 0,0 l/m 0 min 0 min 0 W/m 19,3 km/h (3 Bft) 95,74 %
12.02.2020 17:56 6,2 C 5,0 C 4,4 C 71 % 1016,0 hPa 0,0 l/m 0 min 0 min 0 W/m 12,9 km/h (3 Bft) 97,87 %
12.02.2020 17:58 6,2 C 5,0 C 4,4 C 71 % 1016,1 hPa 0,0 l/m 0 min 0 min 0 W/m 16,1 km/h (3 Bft) 97,62 %
12.02.2020 18:00 6,1 C 4,4 C 4,4 C 72 % 1016,1 hPa 0,0 l/m 0 min 0 min 0 W/m 12,9 km/h (3 Bft) 97,87 %
12.02.2020 18:02 6,1 C 4,4 C 4,4 C 72 % 1016,2 hPa 0,0 l/m 0 min 0 min 0 W/m 16,1 km/h (3 Bft) 96,08 %
12.02.2020 18:04 5,9 C 5,0 C 4,4 C 72 % 1016,2 hPa 0,0 l/m 0 min 0 min 0 W/m 19,3 km/h (3 Bft) 97,87 %
12.02.2020 18:06 5,9 C 5,0 C 4,4 C 72 % 1016,2 hPa 0,0 l/m 0 min 0 min 0 W/m 16,1 km/h (3 Bft) 95,74 %
12.02.2020 18:08 5,9 C 5,0 C 4,4 C 72 % 1016,3 hPa 0,0 l/m 0 min 0 min 0 W/m 12,9 km/h (3 Bft) 95,74 %
12.02.2020 18:10 5,8 C 5,0 C 4,4 C 72 % 1016,3 hPa 0,0 l/m 0 min 0 min 0 W/m 12,9 km/h (3 Bft) 95,83 %
12.02.2020 18:12 5,8 C 5,0 C 4,4 C 72 % 1016,4 hPa 0,0 l/m 0 min 0 min 0 W/m 16,1 km/h (3 Bft) 95,83 %
12.02.2020 18:14 5,8 C 5,0 C 4,4 C 72 % 1016,3 hPa 0,0 l/m 0 min 0 min 0 W/m 12,9 km/h (3 Bft) 95,74 %
12.02.2020 18:16 5,7 C 4,4 C 4,4 C 72 % 1016,4 hPa 0,0 l/m 0 min 0 min 0 W/m 6,4 km/h (2 Bft) 95,74 %
12.02.2020 18:18 5,7 C 4,4 C 4,4 C 72 % 1016,4 hPa 0,0 l/m 0 min 0 min 0 W/m 16,1 km/h (3 Bft) 97,87 %
12.02.2020 18:20 5,7 C 4,4 C 4,4 C 72 % 1016,4 hPa 0,0 l/m 0 min 0 min 0 W/m 6,4 km/h (2 Bft) 100,00 %
12.02.2020 18:22 5,7 C 4,4 C 3,9 C 73 % 1016,4 hPa 0,0 l/m 0 min 0 min 0 W/m 9,7 km/h (2 Bft) 100,00 %
12.02.2020 18:24 5,6 C 4,4 C 3,9 C 73 % 1016,5 hPa 0,0 l/m 0 min 0 min 0 W/m 9,7 km/h (2 Bft) 100,00 %
12.02.2020 18:26 5,6 C 4,4 C 3,9 C 73 % 1016,5 hPa 0,0 l/m 0 min 0 min 0 W/m 9,7 km/h (2 Bft) 100,00 %
12.02.2020 18:28 5,6 C 4,4 C 3,9 C 73 % 1016,6 hPa 0,0 l/m 0 min 0 min 0 W/m 16,1 km/h (3 Bft) 100,00 %
12.02.2020 18:30 5,5 C 4,4 C 3,9 C 73 % 1016,6 hPa 0,0 l/m 0 min 0 min 0 W/m 16,1 km/h (3 Bft) 100,00 %
12.02.2020 18:32 5,4 C 4,4 C 3,9 C 73 % 1016,6 hPa 0,0 l/m 0 min 0 min 0 W/m 16,1 km/h (3 Bft) 100,00 %
12.02.2020 18:34 5,4 C 4,4 C 3,9 C 73 % 1016,6 hPa 0,0 l/m 0 min 0 min 0 W/m 9,7 km/h (2 Bft) 100,00 %
12.02.2020 18:36 5,4 C 4,4 C 3,9 C 73 % 1016,6 hPa 0,0 l/m 0 min 0 min 0 W/m 9,7 km/h (2 Bft) 100,00 %
12.02.2020 18:38 5,4 C 4,4 C 3,9 C 73 % 1016,6 hPa 0,0 l/m 0 min 0 min 0 W/m 6,4 km/h (2 Bft) 100,00 %
12.02.2020 18:40 5,3 C 4,4 C 3,9 C 74 % 1016,7 hPa 0,0 l/m 0 min 0 min 0 W/m 9,7 km/h (2 Bft) 100,00 %
12.02.2020 18:42 5,3 C 4,4 C 3,9 C 74 % 1016,7 hPa 0,0 l/m 0 min 0 min 0 W/m 9,7 km/h (2 Bft) 100,00 %
12.02.2020 18:44 5,3 C 4,4 C 3,9 C 74 % 1016,7 hPa 0,0 l/m 0 min 0 min 0 W/m 9,7 km/h (2 Bft) 100,00 %
12.02.2020 18:46 5,3 C 4,4 C 3,9 C 74 % 1016,6 hPa 0,0 l/m 0 min 0 min 0 W/m 9,7 km/h (2 Bft) 100,00 %
12.02.2020 18:48 5,3 C 4,4 C 3,9 C 73 % 1016,7 hPa 0,0 l/m 0 min 0 min 0 W/m 12,9 km/h (3 Bft) 100,00 %
12.02.2020 18:50 5,3 C 4,4 C 3,9 C 73 % 1016,7 hPa 0,0 l/m 0 min 0 min 0 W/m 12,9 km/h (3 Bft) 100,00 %
12.02.2020 18:52 5,3 C 4,4 C 3,9 C 74 % 1016,8 hPa 0,0 l/m 0 min 0 min 0 W/m 9,7 km/h (2 Bft) 100,00 %
12.02.2020 18:54 5,3 C 4,4 C 3,9 C 74 % 1016,9 hPa 0,0 l/m 0 min 0 min 0 W/m 6,4 km/h (2 Bft) 100,00 %
12.02.2020 18:56 5,3 C 4,4 C 3,9 C 74 % 1016,9 hPa 0,0 l/m 0 min 0 min 0 W/m 9,7 km/h (2 Bft) 100,00 %
12.02.2020 18:58 5,3 C 4,4 C 3,9 C 74 % 1016,9 hPa 0,0 l/m 0 min 0 min 0 W/m 16,1 km/h (3 Bft) 100,00 %
12.02.2020 19:00 5,3 C 4,4 C 4,4 C 74 % 1016,9 hPa 0,0 l/m 0 min 0 min 0 W/m 9,7 km/h (2 Bft) 100,00 %
12.02.2020 19:02 5,3 C 4,4 C 3,9 C 74 % 1016,9 hPa 0,0 l/m 0 min 0 min 0 W/m 9,7 km/h (2 Bft) 100,00 %
12.02.2020 19:04 5,3 C 5,0 C 4,4 C 74 % 1016,9 hPa 0,0 l/m 0 min 0 min 0 W/m 16,1 km/h (3 Bft) 97,92 %
12.02.2020 19:06 5,3 C 5,0 C 4,4 C 74 % 1016,9 hPa 0,0 l/m 0 min 0 min 0 W/m 6,4 km/h (2 Bft) 100,00 %
12.02.2020 19:08 5,3 C 4,4 C 4,4 C 74 % 1016,9 hPa 0,0 l/m 0 min 0 min 0 W/m 22,5 km/h (4 Bft) 95,74 %
12.02.2020 19:10 5,3 C 4,4 C 3,9 C 74 % 1016,9 hPa 0,0 l/m 0 min 0 min 0 W/m 12,9 km/h (3 Bft) 100,00 %
12.02.2020 19:12 5,3 C 4,4 C 3,9 C 74 % 1017,0 hPa 0,0 l/m 0 min 0 min 0 W/m 16,1 km/h (3 Bft) 97,83 %
12.02.2020 19:14 5,3 C 4,4 C 3,9 C 74 % 1017,0 hPa 0,0 l/m 0 min 0 min 0 W/m 12,9 km/h (3 Bft) 100,00 %
12.02.2020 19:16 5,3 C 4,4 C 3,9 C 74 % 1017,0 hPa 0,0 l/m 0 min 0 min 0 W/m 16,1 km/h (3 Bft) 97,87 %
12.02.2020 19:18 5,3 C 4,4 C 3,9 C 74 % 1017,1 hPa 0,0 l/m 0 min 0 min 0 W/m 6,4 km/h (2 Bft) 100,00 %
12.02.2020 19:20 5,3 C 4,4 C 3,9 C 74 % 1017,1 hPa 0,0 l/m 0 min 0 min 0 W/m 6,4 km/h (2 Bft) 100,00 %
12.02.2020 19:22 5,3 C 4,4 C 3,9 C 74 % 1017,1 hPa 0,0 l/m 0 min 0 min 0 W/m 6,4 km/h (2 Bft) 100,00 %
12.02.2020 19:24 5,3 C 4,4 C 3,9 C 74 % 1017,1 hPa 0,0 l/m 0 min 0 min 0 W/m 3,2 km/h (1 Bft) 97,87 %
12.02.2020 19:26 5,3 C 4,4 C 3,9 C 74 % 1017,1 hPa 0,0 l/m 0 min 0 min 0 W/m 6,4 km/h (2 Bft) 97,87 %
12.02.2020 19:28 5,3 C 4,4 C 3,9 C 74 % 1017,1 hPa 0,0 l/m 0 min 0 min 0 W/m 9,7 km/h (2 Bft) 97,62 %
12.02.2020 19:30 5,2 C 4,4 C 3,9 C 74 % 1017,1 hPa 0,0 l/m 0 min 0 min 0 W/m 9,7 km/h (2 Bft) 97,83 %
12.02.2020 19:32 5,2 C 4,4 C 3,9 C 74 % 1017,1 hPa 0,0 l/m 0 min 0 min 0 W/m 6,4 km/h (2 Bft) 97,87 %
12.02.2020 19:34 5,2 C 4,4 C 3,9 C 74 % 1017,2 hPa 0,0 l/m 0 min 0 min 0 W/m 6,4 km/h (2 Bft) 97,92 %
12.02.2020 19:36 5,2 C 4,4 C 3,9 C 74 % 1017,2 hPa 0,0 l/m 0 min 0 min 0 W/m 6,4 km/h (2 Bft) 97,87 %
12.02.2020 19:38 5,2 C 4,4 C 3,9 C 73 % 1017,2 hPa 0,0 l/m 0 min 0 min 0 W/m 6,4 km/h (2 Bft) 95,83 %
12.02.2020 19:40 5,2 C 4,4 C 3,9 C 73 % 1017,2 hPa 0,0 l/m 0 min 0 min 0 W/m 9,7 km/h (2 Bft) 97,87 %
12.02.2020 19:42 5,2 C 4,4 C 3,9 C 73 % 1017,2 hPa 0,0 l/m 0 min 0 min 0 W/m 9,7 km/h (2 Bft) 97,87 %
12.02.2020 19:44 5,2 C 4,4 C 3,9 C 73 % 1017,1 hPa 0,0 l/m 0 min 0 min 0 W/m 6,4 km/h (2 Bft) 97,87 %
12.02.2020 19:46 5,1 C 4,4 C 3,9 C 73 % 1017,2 hPa 0,0 l/m 0 min 0 min 0 W/m 9,7 km/h (2 Bft) 97,92 %
12.02.2020 19:48 5,1 C 3,9 C 3,9 C 74 % 1017,2 hPa 0,0 l/m 0 min 0 min 0 W/m 6,4 km/h (2 Bft) 97,92 %
12.02.2020 19:50 5,1 C 3,9 C 3,9 C 74 % 1017,3 hPa 0,0 l/m 0 min 0 min 0 W/m 6,4 km/h (2 Bft) 97,87 %
12.02.2020 19:52 5,1 C 3,9 C 3,3 C 74 % 1017,2 hPa 0,0 l/m 0 min 0 min 0 W/m 6,4 km/h (2 Bft) 93,62 %
12.02.2020 19:54 5,1 C 3,9 C 3,3 C 74 % 1017,2 hPa 0,0 l/m 0 min 0 min 0 W/m 3,2 km/h (1 Bft) 97,87 %
12.02.2020 19:56 5,1 C 3,9 C 3,3 C 74 % 1017,2 hPa 0,0 l/m 0 min 0 min 0 W/m 3,2 km/h (1 Bft) 97,87 %
12.02.2020 19:58 5,0 C 3,9 C 3,3 C 74 % 1017,2 hPa 0,0 l/m 0 min 0 min 0 W/m 6,4 km/h (2 Bft) 97,83 %
12.02.2020 20:00 4,9 C 3,9 C 3,3 C 74 % 1017,1 hPa 0,0 l/m 0 min 0 min 0 W/m 6,4 km/h (2 Bft) 97,87 %
12.02.2020 20:02 4,9 C 3,9 C 3,3 C 74 % 1017,2 hPa 0,0 l/m 0 min 0 min 0 W/m 12,9 km/h (3 Bft) 97,87 %
12.02.2020 20:04 4,9 C 3,3 C 3,3 C 74 % 1017,2 hPa 0,0 l/m 0 min 0 min 0 W/m 3,2 km/h (1 Bft) 97,87 %
12.02.2020 20:06 4,9 C 3,3 C 3,3 C 74 % 1017,2 hPa 0,0 l/m 0 min 0 min 0 W/m 6,4 km/h (2 Bft) 100,00 %
12.02.2020 20:08 4,8 C 3,3 C 3,3 C 75 % 1017,2 hPa 0,0 l/m 0 min 0 min 0 W/m 6,4 km/h (2 Bft) 100,00 %
12.02.2020 20:10 4,8 C 3,9 C 3,3 C 75 % 1017,2 hPa 0,0 l/m 0 min 0 min 0 W/m 19,3 km/h (3 Bft) 97,83 %
12.02.2020 20:12 4,8 C 3,3 C 3,3 C 75 % 1017,2 hPa 0,0 l/m 0 min 0 min 0 W/m 9,7 km/h (2 Bft) 100,00 %
12.02.2020 20:14 4,8 C 3,3 C 2,8 C 75 % 1017,2 hPa 0,0 l/m 0 min 0 min 0 W/m 3,2 km/h (1 Bft) 97,87 %
12.02.2020 20:16 4,7 C 3,3 C 2,8 C 75 % 1017,2 hPa 0,0 l/m 0 min 0 min 0 W/m 9,7 km/h (2 Bft) 100,00 %
12.02.2020 20:18 4,7 C 3,3 C 2,8 C 75 % 1017,2 hPa 0,0 l/m 0 min 0 min 0 W/m 6,4 km/h (2 Bft) 100,00 %
12.02.2020 20:20 4,7 C 3,3 C 2,8 C 75 % 1017,2 hPa 0,0 l/m 0 min 0 min 0 W/m 3,2 km/h (1 Bft) 100,00 %
12.02.2020 20:22 4,6 C 3,3 C 2,8 C 75 % 1017,2 hPa 0,0 l/m 0 min 0 min 0 W/m 9,7 km/h (2 Bft) 100,00 %
12.02.2020 20:24 4,6 C 3,3 C 2,8 C 75 % 1017,2 hPa 0,0 l/m 0 min 0 min 0 W/m 3,2 km/h (1 Bft) 100,00 %
12.02.2020 20:26 4,6 C 3,3 C 2,8 C 75 % 1017,2 hPa 0,0 l/m 0 min 0 min 0 W/m 6,4 km/h (2 Bft) 97,87 %
12.02.2020 20:28 4,6 C 3,3 C 2,8 C 75 % 1017,2 hPa 0,0 l/m 0 min 0 min 0 W/m 6,4 km/h (2 Bft) 100,00 %
12.02.2020 20:30 4,5 C 3,3 C 2,8 C 75 % 1017,1 hPa 0,0 l/m 0 min 0 min 0 W/m 3,2 km/h (1 Bft) 97,87 %
12.02.2020 20:32 4,4 C 3,3 C 2,8 C 75 % 1017,1 hPa 0,0 l/m 0 min 0 min 0 W/m 3,2 km/h (1 Bft) 100,00 %
12.02.2020 20:34 4,4 C 3,3 C 2,8 C 75 % 1017,1 hPa 0,0 l/m 0 min 0 min 0 W/m 9,7 km/h (2 Bft) 95,65 %
12.02.2020 20:36 4,4 C 3,3 C 2,8 C 75 % 1017,2 hPa 0,0 l/m 0 min 0 min 0 W/m 6,4 km/h (2 Bft) 95,74 %
12.02.2020 20:38 4,3 C 3,3 C 2,8 C 75 % 1017,1 hPa 0,0 l/m 0 min 0 min 0 W/m 6,4 km/h (2 Bft) 97,87 %
12.02.2020 20:40 4,3 C 3,3 C 2,8 C 75 % 1017,2 hPa 0,0 l/m 0 min 0 min 0 W/m 6,4 km/h (2 Bft) 97,87 %
12.02.2020 20:42 4,3 C 3,3 C 2,8 C 75 % 1017,2 hPa 0,0 l/m 0 min 0 min 0 W/m 6,4 km/h (2 Bft) 97,87 %
12.02.2020 20:44 4,3 C 3,3 C 2,8 C 76 % 1017,2 hPa 0,0 l/m 0 min 0 min 0 W/m 9,7 km/h (2 Bft) 97,83 %
12.02.2020 20:46 4,2 C 3,3 C 2,8 C 76 % 1017,2 hPa 0,0 l/m 0 min 0 min 0 W/m 6,4 km/h (2 Bft) 97,87 %
12.02.2020 20:48 4,2 C 3,3 C 2,8 C 76 % 1017,2 hPa 0,0 l/m 0 min 0 min 0 W/m 6,4 km/h (2 Bft) 97,87 %
12.02.2020 20:50 4,2 C 3,3 C 2,8 C 76 % 1017,1 hPa 0,0 l/m 0 min 0 min 0 W/m 6,4 km/h (2 Bft) 97,87 %
12.02.2020 20:52 4,2 C 3,3 C 2,8 C 76 % 1017,1 hPa 0,0 l/m 0 min 0 min 0 W/m 9,7 km/h (2 Bft) 97,14 %
12.02.2020 20:54 4,2 C 3,3 C 2,8 C 76 % 1017,1 hPa 0,0 l/m 0 min 0 min 0 W/m 9,7 km/h (2 Bft) 97,87 %
12.02.2020 20:56 4,2 C 3,3 C 2,8 C 76 % 1017,1 hPa 0,0 l/m 0 min 0 min 0 W/m 6,4 km/h (2 Bft) 95,74 %
12.02.2020 20:58 4,1 C 3,3 C 2,8 C 76 % 1017,1 hPa 0,0 l/m 0 min 0 min 0 W/m 6,4 km/h (2 Bft) 93,62 %
12.02.2020 21:00 4,1 C 3,3 C 2,8 C 76 % 1017,1 hPa 0,0 l/m 0 min 0 min 0 W/m 16,1 km/h (3 Bft) 95,74 %
12.02.2020 21:02 4,1 C 3,9 C 3,3 C 76 % 1017,1 hPa 0,0 l/m 0 min 0 min 0 W/m 9,7 km/h (2 Bft) 95,74 %
12.02.2020 21:04 4,2 C 3,3 C 3,3 C 76 % 1017,1 hPa 0,0 l/m 0 min 0 min 0 W/m 16,1 km/h (3 Bft) 95,65 %
12.02.2020 21:06 4,2 C 3,3 C 3,3 C 76 % 1017,1 hPa 0,0 l/m 0 min 0 min 0 W/m 12,9 km/h (3 Bft) 95,74 %
12.02.2020 21:08 4,1 C 3,3 C 2,8 C 76 % 1017,1 hPa 0,0 l/m 0 min 0 min 0 W/m 9,7 km/h (2 Bft) 95,74 %
12.02.2020 21:10 4,2 C 3,3 C 3,3 C 76 % 1017,1 hPa 0,0 l/m 0 min 0 min 0 W/m 6,4 km/h (2 Bft) 95,74 %
12.02.2020 21:12 4,2 C 3,3 C 2,8 C 76 % 1017,2 hPa 0,0 l/m 0 min 0 min 0 W/m 6,4 km/h (2 Bft) 95,74 %
12.02.2020 21:14 4,1 C 3,3 C 3,3 C 76 % 1017,1 hPa 0,0 l/m 0 min 0 min 0 W/m 12,9 km/h (3 Bft) 91,49 %
12.02.2020 21:16 4,2 C 3,3 C 3,3 C 76 % 1017,1 hPa 0,0 l/m 0 min 0 min 0 W/m 19,3 km/h (3 Bft) 95,65 %
12.02.2020 21:18 4,2 C 3,9 C 3,3 C 76 % 1017,1 hPa 0,0 l/m 0 min 0 min 0 W/m 19,3 km/h (3 Bft) 93,62 %
12.02.2020 21:20 4,2 C 3,9 C 3,3 C 76 % 1017,0 hPa 0,0 l/m 0 min 0 min 0 W/m 16,1 km/h (3 Bft) 93,62 %
12.02.2020 21:22 4,2 C 3,3 C 3,3 C 76 % 1017,0 hPa 0,0 l/m 0 min 0 min 0 W/m 9,7 km/h (2 Bft) 95,74 %
12.02.2020 21:24 4,2 C 3,3 C 3,3 C 76 % 1017,0 hPa 0,0 l/m 0 min 0 min 0 W/m 12,9 km/h (3 Bft) 93,62 %
12.02.2020 21:26 4,2 C 3,3 C 2,8 C 76 % 1017,0 hPa 0,0 l/m 0 min 0 min 0 W/m 6,4 km/h (2 Bft) 95,65 %
12.02.2020 21:28 4,2 C 3,3 C 2,8 C 76 % 1017,0 hPa 0,0 l/m 0 min 0 min 0 W/m 6,4 km/h (2 Bft) 95,74 %
12.02.2020 21:30 4,2 C 3,3 C 2,8 C 76 % 1017,1 hPa 0,0 l/m 0 min 0 min 0 W/m 12,9 km/h (3 Bft) 93,62 %
12.02.2020 21:32 4,2 C 3,3 C 2,8 C 76 % 1017,1 hPa 0,0 l/m 0 min 0 min 0 W/m 16,1 km/h (3 Bft) 95,74 %
12.02.2020 21:34 4,2 C 3,3 C 2,8 C 76 % 1017,1 hPa 0,0 l/m 0 min 0 min 0 W/m 3,2 km/h (1 Bft) 95,74 %
12.02.2020 21:36 4,2 C 3,3 C 2,8 C 76 % 1017,0 hPa 0,0 l/m 0 min 0 min 0 W/m 19,3 km/h (3 Bft) 97,87 %
12.02.2020 21:38 4,2 C 3,3 C 2,8 C 76 % 1017,1 hPa 0,0 l/m 0 min 0 min 0 W/m 16,1 km/h (3 Bft) 93,48 %
12.02.2020 21:40 4,2 C 3,3 C 2,8 C 76 % 1017,1 hPa 0,0 l/m 0 min 0 min 0 W/m 6,4 km/h (2 Bft) 95,74 %
12.02.2020 21:42 4,2 C 3,3 C 2,8 C 76 % 1017,1 hPa 0,0 l/m 0 min 0 min 0 W/m 16,1 km/h (3 Bft) 95,74 %
12.02.2020 21:44 4,2 C 3,3 C 2,8 C 76 % 1017,1 hPa 0,0 l/m 0 min 0 min 0 W/m 16,1 km/h (3 Bft) 93,62 %
12.02.2020 21:46 4,2 C 3,3 C 2,8 C 76 % 1017,1 hPa 0,0 l/m 0 min 0 min 0 W/m 19,3 km/h (3 Bft) 95,74 %
12.02.2020 21:48 4,2 C 3,3 C 2,8 C 76 % 1017,1 hPa 0,0 l/m 0 min 0 min 0 W/m 19,3 km/h (3 Bft) 93,62 %
12.02.2020 21:50 4,2 C 3,3 C 2,8 C 76 % 1017,1 hPa 0,0 l/m 0 min 0 min 0 W/m 25,7 km/h (4 Bft) 95,65 %
12.02.2020 21:52 4,2 C 3,3 C 3,3 C 76 % 1017,0 hPa 0,0 l/m 0 min 0 min 0 W/m 22,5 km/h (4 Bft) 93,62 %
12.02.2020 21:54 4,2 C 3,3 C 2,8 C 76 % 1017,1 hPa 0,0 l/m 0 min 0 min 0 W/m 19,3 km/h (3 Bft) 95,74 %
12.02.2020 21:56 4,2 C 3,3 C 2,8 C 77 % 1017,1 hPa 0,0 l/m 0 min 0 min 0 W/m 19,3 km/h (3 Bft) 93,62 %
12.02.2020 21:58 4,2 C 3,3 C 2,8 C 77 % 1017,0 hPa 0,0 l/m 0 min 0 min 0 W/m 16,1 km/h (3 Bft) 95,74 %
12.02.2020 22:00 4,2 C 3,3 C 2,8 C 77 % 1017,0 hPa 0,0 l/m 0 min 0 min 0 W/m 22,5 km/h (4 Bft) 95,74 %
12.02.2020 22:02 4,2 C 3,3 C 2,8 C 77 % 1017,0 hPa 0,0 l/m 0 min 0 min 0 W/m 22,5 km/h (4 Bft) 95,65 %
12.02.2020 22:04 4,2 C 3,3 C 2,8 C 77 % 1017,0 hPa 0,0 l/m 0 min 0 min 0 W/m 19,3 km/h (3 Bft) 95,74 %
12.02.2020 22:06 4,2 C 3,3 C 2,8 C 78 % 1017,0 hPa 0,0 l/m 0 min 0 min 0 W/m 16,1 km/h (3 Bft) 97,87 %
12.02.2020 22:08 4,2 C 3,3 C 2,8 C 78 % 1017,0 hPa 0,0 l/m 0 min 0 min 0 W/m 19,3 km/h (3 Bft) 97,87 %
12.02.2020 22:10 4,2 C 3,3 C 2,8 C 78 % 1017,0 hPa 0,0 l/m 0 min 0 min 0 W/m 16,1 km/h (3 Bft) 100,00 %
12.02.2020 22:12 4,2 C 3,3 C 2,8 C 78 % 1017,0 hPa 0,0 l/m 0 min 0 min 0 W/m 19,3 km/h (3 Bft) 95,65 %
12.02.2020 22:14 4,2 C 3,3 C 2,8 C 78 % 1017,0 hPa 0,0 l/m 0 min 0 min 0 W/m 16,1 km/h (3 Bft) 100,00 %
12.02.2020 22:16 4,2 C 3,9 C 3,3 C 78 % 1017,0 hPa 0,0 l/m 0 min 0 min 0 W/m 22,5 km/h (4 Bft) 97,87 %
12.02.2020 22:18 4,2 C 3,9 C 3,3 C 79 % 1017,0 hPa 0,0 l/m 0 min 0 min 0 W/m 19,3 km/h (3 Bft) 100,00 %
12.02.2020 22:20 4,3 C 3,9 C 3,3 C 79 % 1016,9 hPa 0,0 l/m 0 min 0 min 0 W/m 19,3 km/h (3 Bft) 100,00 %
12.02.2020 22:22 4,3 C 3,9 C 3,3 C 79 % 1017,0 hPa 0,0 l/m 0 min 0 min 0 W/m 22,5 km/h (4 Bft) 100,00 %
12.02.2020 22:24 4,3 C 3,9 C 3,3 C 79 % 1016,9 hPa 0,0 l/m 0 min 0 min 0 W/m 22,5 km/h (4 Bft) 100,00 %
12.02.2020 22:26 4,3 C 3,9 C 3,3 C 79 % 1017,0 hPa 0,0 l/m 0 min 0 min 0 W/m 19,3 km/h (3 Bft) 97,87 %
12.02.2020 22:28 4,3 C 3,3 C 3,3 C 80 % 1017,0 hPa 0,0 l/m 0 min 0 min 0 W/m 22,5 km/h (4 Bft) 100,00 %
12.02.2020 22:30 4,3 C 3,9 C 3,3 C 80 % 1017,0 hPa 0,0 l/m 0 min 0 min 0 W/m 19,3 km/h (3 Bft) 100,00 %
12.02.2020 22:32 4,3 C 3,9 C 3,3 C 80 % 1017,0 hPa 0,0 l/m 0 min 0 min 0 W/m 16,1 km/h (3 Bft) 100,00 %
12.02.2020 22:34 4,3 C 3,9 C 3,3 C 80 % 1017,0 hPa 0,0 l/m 0 min 0 min 0 W/m 22,5 km/h (4 Bft) 100,00 %
12.02.2020 22:36 4,3 C 3,9 C 3,3 C 80 % 1017,0 hPa 0,0 l/m 0 min 0 min 0 W/m 16,1 km/h (3 Bft) 100,00 %
12.02.2020 22:38 4,3 C 3,9 C 3,3 C 80 % 1017,0 hPa 0,0 l/m 0 min 0 min 0 W/m 16,1 km/h (3 Bft) 100,00 %
12.02.2020 22:40 4,3 C 3,3 C 3,3 C 80 % 1017,0 hPa 0,0 l/m 0 min 0 min 0 W/m 12,9 km/h (3 Bft) 100,00 %
12.02.2020 22:42 4,3 C 3,3 C 2,8 C 80 % 1017,0 hPa 0,0 l/m 0 min 0 min 0 W/m 16,1 km/h (3 Bft) 100,00 %
12.02.2020 22:44 4,3 C 3,3 C 2,8 C 80 % 1017,0 hPa 0,0 l/m 0 min 0 min 0 W/m 16,1 km/h (3 Bft) 97,87 %
12.02.2020 22:46 4,3 C 3,3 C 2,8 C 81 % 1017,1 hPa 0,0 l/m 0 min 0 min 0 W/m 12,9 km/h (3 Bft) 100,00 %
12.02.2020 22:48 4,3 C 3,3 C 2,8 C 81 % 1017,1 hPa 0,0 l/m 0 min 0 min 0 W/m 16,1 km/h (3 Bft) 97,83 %
12.02.2020 22:50 4,3 C 3,3 C 2,8 C 81 % 1017,1 hPa 0,0 l/m 0 min 0 min 0 W/m 22,5 km/h (4 Bft) 100,00 %
12.02.2020 22:52 4,3 C 3,3 C 2,8 C 81 % 1017,1 hPa 0,0 l/m 0 min 0 min 0 W/m 16,1 km/h (3 Bft) 100,00 %
12.02.2020 22:54 4,2 C 3,3 C 2,8 C 81 % 1017,1 hPa 0,0 l/m 0 min 0 min 0 W/m 12,9 km/h (3 Bft) 100,00 %
12.02.2020 22:56 4,2 C 3,3 C 2,8 C 81 % 1017,1 hPa 0,0 l/m 0 min 0 min 0 W/m 16,1 km/h (3 Bft) 100,00 %
12.02.2020 22:58 4,2 C 3,3 C 2,8 C 81 % 1017,2 hPa 0,0 l/m 0 min 0 min 0 W/m 22,5 km/h (4 Bft) 100,00 %
12.02.2020 23:00 4,2 C 3,3 C 2,8 C 81 % 1017,3 hPa 0,0 l/m 0 min 0 min 0 W/m 25,7 km/h (4 Bft) 100,00 %
12.02.2020 23:02 4,2 C 3,3 C 2,8 C 81 % 1017,2 hPa 0,0 l/m 0 min 0 min 0 W/m 19,3 km/h (3 Bft) 100,00 %
12.02.2020 23:04 4,2 C 3,3 C 2,8 C 81 % 1017,3 hPa 0,0 l/m 0 min 0 min 0 W/m 9,7 km/h (2 Bft) 100,00 %
12.02.2020 23:06 4,2 C 3,3 C 2,8 C 82 % 1017,3 hPa 0,0 l/m 0 min 0 min 0 W/m 25,7 km/h (4 Bft) 100,00 %
12.02.2020 23:08 4,2 C 3,3 C 2,8 C 82 % 1017,3 hPa 0,0 l/m 0 min 0 min 0 W/m 29,0 km/h (5 Bft) 100,00 %
12.02.2020 23:10 4,2 C 3,3 C 2,8 C 82 % 1017,3 hPa 0,0 l/m 0 min 0 min 0 W/m 16,1 km/h (3 Bft) 100,00 %
12.02.2020 23:12 4,2 C 3,3 C 2,8 C 82 % 1017,3 hPa 0,0 l/m 0 min 0 min 0 W/m 19,3 km/h (3 Bft) 100,00 %
12.02.2020 23:14 4,2 C 3,3 C 2,8 C 82 % 1017,3 hPa 0,0 l/m 0 min 0 min 0 W/m 16,1 km/h (3 Bft) 100,00 %
12.02.2020 23:16 4,2 C 3,3 C 2,8 C 82 % 1017,3 hPa 0,0 l/m 0 min 0 min 0 W/m 12,9 km/h (3 Bft) 100,00 %
12.02.2020 23:18 4,2 C 3,3 C 2,8 C 82 % 1017,3 hPa 0,0 l/m 0 min 0 min 0 W/m 12,9 km/h (3 Bft) 97,87 %
12.02.2020 23:20 4,2 C 3,3 C 2,8 C 82 % 1017,2 hPa 0,0 l/m 0 min 0 min 0 W/m 16,1 km/h (3 Bft) 100,00 %
12.02.2020 23:22 4,2 C 3,3 C 2,8 C 82 % 1017,3 hPa 0,0 l/m 0 min 0 min 0 W/m 12,9 km/h (3 Bft) 95,65 %
12.02.2020 23:24 4,2 C 3,3 C 2,8 C 82 % 1017,2 hPa 0,0 l/m 0 min 0 min 0 W/m 12,9 km/h (3 Bft) 100,00 %
12.02.2020 23:26 4,1 C 3,3 C 2,8 C 82 % 1017,2 hPa 0,0 l/m 0 min 0 min 0 W/m 19,3 km/h (3 Bft) 100,00 %
12.02.2020 23:28 4,1 C 3,3 C 2,8 C 82 % 1017,3 hPa 0,0 l/m 0 min 0 min 0 W/m 16,1 km/h (3 Bft) 97,87 %
12.02.2020 23:30 4,1 C 3,3 C 2,8 C 82 % 1017,3 hPa 0,0 l/m 0 min 0 min 0 W/m 16,1 km/h (3 Bft) 100,00 %
12.02.2020 23:32 4,1 C 3,3 C 2,8 C 82 % 1017,3 hPa 0,0 l/m 0 min 0 min 0 W/m 12,9 km/h (3 Bft) 95,74 %
12.02.2020 23:34 4,1 C 3,3 C 2,8 C 83 % 1017,3 hPa 0,0 l/m 0 min 0 min 0 W/m 16,1 km/h (3 Bft) 100,00 %
12.02.2020 23:36 4,1 C 3,3 C 2,8 C 83 % 1017,3 hPa 0,0 l/m 0 min 0 min 0 W/m 19,3 km/h (3 Bft) 100,00 %
12.02.2020 23:38 4,1 C 3,3 C 2,8 C 83 % 1017,3 hPa 0,0 l/m 0 min 0 min 0 W/m 12,9 km/h (3 Bft) 97,87 %
12.02.2020 23:40 4,1 C 3,3 C 2,8 C 83 % 1017,3 hPa 0,0 l/m 0 min 0 min 0 W/m 19,3 km/h (3 Bft) 97,87 %
12.02.2020 23:42 4,1 C 3,3 C 2,8 C 83 % 1017,2 hPa 0,0 l/m 0 min 0 min 0 W/m 22,5 km/h (4 Bft) 95,74 %
12.02.2020 23:44 4,1 C 3,3 C 2,8 C 83 % 1017,2 hPa 0,0 l/m 0 min 0 min 0 W/m 12,9 km/h (3 Bft) 95,74 %
12.02.2020 23:46 4,0 C 3,3 C 2,8 C 83 % 1017,2 hPa 0,0 l/m 0 min 0 min 0 W/m 12,9 km/h (3 Bft) 95,65 %
12.02.2020 23:48 4,0 C 3,3 C 2,8 C 83 % 1017,2 hPa 0,0 l/m 0 min 0 min 0 W/m 6,4 km/h (2 Bft) 95,74 %
12.02.2020 23:50 4,0 C 2,8 C 2,8 C 83 % 1017,1 hPa 0,0 l/m 0 min 0 min 0 W/m 12,9 km/h (3 Bft) 93,62 %
12.02.2020 23:52 4,0 C 2,8 C 2,8 C 83 % 1017,2 hPa 0,0 l/m 0 min 0 min 0 W/m 16,1 km/h (3 Bft) 95,74 %
12.02.2020 23:54 3,9 C 3,3 C 2,8 C 83 % 1017,2 hPa 0,0 l/m 0 min 0 min 0 W/m 16,1 km/h (3 Bft) 93,62 %
12.02.2020 23:56 3,9 C 3,3 C 2,8 C 84 % 1017,1 hPa 0,0 l/m 0 min 0 min 0 W/m 9,7 km/h (2 Bft) 95,74 %
12.02.2020 23:58 3,9 C 3,3 C 2,8 C 84 % 1017,1 hPa 0,0 l/m 0 min 0 min 0 W/m 16,1 km/h (3 Bft) 93,48 %
_ Min-Zeit 08:00 01:54 01:54 14:50 00:00 - - - - 19:24 04:46
Minimum _ 3,5 C 2,8 C 2,2 C 63 % 1010,1 hPa - - - - 3,2 km/h (1 Bft) 53,66 %
_ Max-Zeit 14:26 14:16 12:54 08:00 19:50 00:00 09:48 15:48 12:52 09:12 00:40
Maximum _ 8,5 C 13,3 C 11,7 C 87 % 1017,3 hPa 0,0 l/m 2 min 2 min 589 W/m 41,8 km/h
S-SW (6 Bft)
100,00 %
Durchschnitt _ 5,2 C 5,1 C 4,2 C 78 % 1014,0 hPa #0,0 l/m #5:12 h #12 min. 194 W/m 20,7 km/h (4 Bft) 97,28 %
© 2020 W. Hausmann